GFSFLT2_sfc_temp_000.txt.gz
Temp
64 65 68 69 68 68 68 69 69 69 69 69 68 68 68 68 68 69 69 69 68 68 67 67 68 67 67 66 65 66 64 64
63 63 64 63 63 67 67 68 68 68 68 68 67 67 67 67 66 67 68 67 67 67 66 66 65 65 65 64 65 64 62 62
63 63 62 61 62 65 67 68 68 67 67 67 64 61 60 59 65 66 66 66 66 65 65 64 63 62 63 63 62 59 62 61
62 62 62 61 67 63 62 64 63 64 63 62 60 59 58 61 63 65 65 65 64 64 63 62 59 55 55 59 56 57 58 59
63 63 62 62 62 61 59 60 61 61 62 61 59 59 57 58 56 57 56 60 55 56 55 54 54 54 54 55 55 56 56 58
63 62 62 61 61 61 60 60 60 60 60 60 58 57 56 56 56 56 56 55 54 54 54 54 54 55 55 55 55 55 56 57
61 60 60 60 60 59 59 59 60 60 60 59 58 57 56 56 56 55 55 55 54 54 52 52 52 53 53 54 54 55 56 56
59 59 59 59 57 57 57 57 58 58 58 58 58 57 56 55 55 55 54 54 53 51 50 50 49 50 52 53 53 53 54 54
59 58 59 58 58 58 56 56 57 56 56 57 57 57 56 56 55 54 54 53 52 50 50 49 49 50 50 50 51 52 53 53
58 62 58 57 57 56 56 56 55 55 55 55 56 56 55 54 52 52 53 51 50 49 48 48 48 47 47 48 49 50 51 52
58 58 58 57 56 56 55 55 54 54 53 53 54 55 55 52 52 52 51 50 49 49 47 47 47 47 48 49 48 49 50 53
58 57 57 57 54 53 52 52 52 52 52 53 54 54 54 53 52 52 50 49 48 47 47 46 47 47 51 50 47 48 48 49
58 57 57 55 53 53 52 52 52 52 52 54 53 54 54 54 53 51 50 50 52 48 47 47 46 45 45 45 45 46 47 48
57 57 57 55 53 52 52 51 51 51 52 52 53 53 54 55 54 53 52 52 48 48 47 45 45 44 44 41 41 44 45 47
56 56 56 55 54 52 52 51 51 52 53 52 54 53 55 54 55 54 53 52 52 51 49 46 47 43 43 44 38 37 39 43
55 55 55 56 54 52 50 49 49 52 52 53 56 53 51 53 54 53 53 53 52 50 51 48 44 42 42 46 43 42 38 38
51 53 54 54 53 51 49 50 49 50 51 49 51 50 48 49 51 52 50 49 48 48 46 44 46 43 43 42 41 40 40 38
51 53 53 53 52 50 48 46 47 48 51 47 47 45 44 44 45 45 44 44 43 43 45 45 43 45 43 43 42 41 39 37
52 50 51 51 49 48 47 48 47 48 49 48 45 42 39 39 41 42 42 42 43 45 43 44 43 43 43 43 44 43 43 41
49 49 49 49 48 48 47 48 47 48 47 44 41 39 39 40 40 41 42 42 43 43 42 42 42 41 41 41 39 40 41 41

GFSFLT2_sfc_temp_003.txt.gz
Temp
74 75 73 69 68 69 69 69 69 69 69 68 68 68 68 68 68 69 69 68 68 68 67 67 67 67 67 66 65 66 74 72
73 73 75 74 74 67 68 68 68 68 68 68 67 67 67 67 67 68 68 67 67 67 66 66 65 65 65 65 64 66 73 72
73 72 73 73 74 72 69 68 68 67 68 67 68 74 72 70 67 66 67 66 66 65 65 64 63 63 63 63 65 74 74 75
73 72 72 72 74 73 73 73 75 74 73 71 73 71 71 70 67 65 65 64 64 63 63 62 66 71 72 67 73 72 74 73
73 72 71 72 73 75 74 75 74 74 71 71 70 70 70 71 70 70 69 65 69 67 68 68 67 68 68 69 70 71 74 74
74 73 71 71 74 74 74 73 73 73 73 70 70 70 69 68 70 69 68 69 67 67 67 65 66 66 66 66 68 70 73 73
74 72 71 72 70 72 71 71 72 72 72 71 70 70 69 69 69 69 68 68 68 67 67 66 66 66 67 67 67 67 68 72
73 72 71 72 71 70 71 71 72 71 72 72 69 70 69 69 69 69 69 69 69 67 65 66 65 65 65 66 66 68 68 68
71 71 71 70 70 70 71 72 70 71 71 69 69 69 69 68 69 69 69 69 66 65 64 64 65 64 64 65 66 66 67 67
72 72 72 70 70 71 72 72 70 70 70 70 68 68 68 68 68 68 69 67 66 65 65 64 64 65 65 67 67 66 66 66
72 71 72 71 70 71 70 68 70 71 69 70 68 68 67 67 68 68 67 67 65 65 64 63 64 64 65 65 65 66 65 67
72 72 71 69 70 68 69 69 69 68 69 69 68 69 67 67 67 65 66 65 65 63 62 63 63 65 65 65 65 66 65 65
72 71 70 69 69 68 70 68 68 69 69 67 65 67 66 65 66 66 65 63 64 64 62 60 61 61 61 62 63 63 63 65
69 67 66 66 68 67 66 65 67 65 65 65 66 65 65 65 64 65 65 64 63 63 61 61 61 61 60 60 57 61 61 61
65 65 66 65 64 67 67 66 66 66 67 67 67 65 65 64 63 63 63 63 61 63 62 60 61 62 59 61 56 54 61 60
65 65 65 64 63 63 61 61 60 62 62 64 63 63 62 62 61 60 60 61 61 61 63 61 60 59 58 58 57 57 55 55
63 63 63 62 62 61 61 59 60 61 61 60 60 61 60 58 57 57 57 58 59 58 58 58 59 58 58 56 53 54 54 53
61 62 63 62 61 60 58 57 57 58 59 58 59 59 57 55 55 55 54 54 54 54 54 53 54 54 54 54 54 51 52 50
61 61 61 60 59 58 57 58 58 57 57 57 55 55 55 53 53 53 54 53 53 53 52 51 50 49 47 45 46 43 43 42
59 59 59 60 59 57 57 58 57 56 56 55 53 52 52 51 53 54 54 54 53 53 52 50 48 46 42 41 41 40 40 40

GFSFLT2_sfc_temp_006.txt.gz
Temp
86 85 78 70 70 70 70 70 71 70 70 69 69 69 69 69 69 69 69 69 69 68 68 67 67 67 67 66 66 67 81 84
84 84 85 84 83 69 69 70 69 69 69 69 68 68 68 68 69 69 68 68 67 67 66 66 65 65 65 65 66 69 82 83
83 85 84 84 85 80 71 69 69 69 71 68 70 84 81 78 67 67 67 67 66 66 65 64 64 65 64 64 65 83 81 84
85 82 82 83 85 84 83 83 86 83 82 80 83 79 80 76 71 66 65 65 65 64 64 64 68 81 81 70 81 79 81 81
84 81 81 81 85 87 88 88 85 85 80 80 80 79 80 80 80 80 78 70 79 76 77 79 75 76 78 77 78 77 81 82
85 83 81 80 85 87 87 85 85 83 83 79 79 80 79 78 79 79 78 79 76 77 77 74 74 74 74 74 75 77 81 81
85 83 81 82 80 84 83 81 84 81 81 81 80 79 78 79 78 79 78 78 78 76 76 75 74 74 74 74 74 74 75 79
85 83 82 83 81 81 82 83 82 83 82 81 78 78 77 78 78 78 79 79 78 77 76 75 75 74 74 73 73 75 75 75
84 83 83 81 80 82 83 85 81 82 82 79 78 78 78 76 77 77 78 78 76 76 74 74 74 75 73 74 73 73 74 73
85 83 83 81 82 83 85 86 83 83 82 80 78 77 76 76 77 77 78 77 77 76 75 74 73 73 73 74 74 74 73 72
84 83 84 82 81 83 82 80 82 84 81 81 79 77 76 75 76 76 76 76 75 75 74 73 72 73 74 74 74 74 74 75
85 84 81 80 83 81 83 81 83 81 81 80 77 77 75 74 75 74 74 74 74 74 72 73 72 71 74 74 73 74 74 73
82 80 75 80 81 78 79 77 79 79 79 75 74 74 74 72 73 73 73 72 71 70 70 69 69 71 68 69 71 72 70 72
77 76 76 77 79 77 75 74 76 76 77 75 75 72 72 72 71 71 71 71 69 69 68 67 69 70 65 66 62 68 71 70
75 75 74 73 74 77 78 78 76 75 74 74 72 71 71 70 69 69 68 68 68 68 68 66 65 68 69 64 60 60 66 72
73 73 74 72 72 72 69 70 68 69 69 71 70 70 69 69 68 67 66 67 65 66 68 66 65 63 67 69 66 65 60 58
71 72 72 72 71 69 70 67 68 69 69 67 68 69 69 68 66 64 64 65 64 62 62 62 63 62 63 63 59 62 62 57
70 71 70 70 70 68 65 64 65 65 65 65 66 66 67 66 64 63 62 62 61 61 60 58 58 58 57 56 55 47 51 54
69 69 69 69 67 66 65 65 65 64 63 63 61 62 62 62 60 61 62 60 60 61 60 57 52 50 48 45 44 42 42 42
68 68 68 68 66 66 67 66 65 64 63 61 59 59 60 59 59 60 60 60 59 58 53 51 52 52 50 47 45 46 44 40

GFSFLT2_sfc_temp_009.txt.gz
Temp
89 87 78 71 71 71 71 71 71 71 70 70 70 70 70 70 70 70 70 69 69 68 68 68 68 67 67 67 67 68 76 81
89 88 90 87 82 70 70 71 70 70 70 69 69 69 70 70 70 69 69 68 68 68 67 66 67 66 66 67 67 67 78 84
89 89 88 87 88 79 70 70 71 70 71 70 71 82 83 79 68 68 67 67 67 66 66 66 67 66 67 68 67 81 82 84
88 87 86 86 89 86 85 86 86 85 84 83 85 82 82 80 72 68 68 68 68 67 67 67 67 81 78 69 79 81 81 83
89 85 85 85 86 88 90 90 87 86 84 82 82 82 82 82 82 82 81 72 81 76 78 80 77 77 78 78 79 79 82 82
88 86 84 84 88 90 88 88 85 86 84 82 81 81 80 80 81 81 80 81 79 79 79 78 76 76 76 75 76 77 80 81
89 87 85 85 84 86 84 84 85 82 84 83 81 80 78 79 79 80 80 81 80 78 78 78 77 76 77 76 76 76 76 78
89 88 86 86 85 83 83 84 85 85 84 82 80 79 78 79 78 79 80 81 80 78 77 76 76 77 76 76 75 76 77 76
88 88 86 84 84 84 85 85 84 85 84 82 80 80 78 77 78 78 79 79 78 78 78 77 76 77 76 76 75 74 74 75
90 89 86 84 84 84 87 86 84 84 85 84 81 79 79 77 77 77 78 77 78 77 77 76 75 75 75 75 76 76 75 75
88 86 86 85 83 85 84 83 83 85 83 83 80 79 78 76 76 76 76 76 76 76 75 75 74 74 75 76 76 75 75 77
89 86 86 84 86 83 84 83 83 84 83 81 79 79 76 75 75 75 75 74 75 75 73 73 73 73 74 74 74 76 76 75
86 83 80 83 83 80 80 79 80 80 81 78 77 76 75 73 74 74 73 72 72 71 71 69 70 72 70 70 72 72 72 74
81 80 79 81 81 79 77 76 78 78 79 77 77 74 73 73 71 71 71 70 69 69 68 67 69 70 66 67 62 67 72 73
79 78 77 76 78 79 78 78 78 77 75 75 75 73 73 72 71 69 68 68 68 67 67 65 64 67 68 64 58 58 66 72
77 76 76 76 74 74 71 71 69 71 72 73 72 72 72 71 70 68 66 66 65 66 67 64 63 61 65 67 66 64 57 55
75 75 75 74 74 72 70 69 70 72 71 68 68 70 69 70 68 67 64 65 64 63 62 61 61 60 60 60 59 59 58 49
74 74 74 73 72 71 69 65 64 66 66 65 66 66 66 66 66 64 63 63 62 61 61 59 55 55 56 54 50 47 47 45
73 74 74 74 72 70 69 68 67 66 65 64 62 62 62 62 62 61 61 62 62 59 54 51 50 46 48 51 51 47 46 44
72 72 72 74 72 70 70 68 66 65 63 61 59 59 60 61 60 60 60 57 56 56 54 53 51 51 47 45 46 48 46 45

GFSFLT2_sfc_temp_012.txt.gz
Temp
80 76 72 71 70 70 70 70 70 70 70 70 70 70 70 70 70 70 70 69 69 69 68 68 68 68 68 67 67 67 66 70
81 78 78 74 71 70 70 70 70 70 70 70 69 69 70 70 70 69 69 69 68 68 68 68 68 68 68 68 67 67 67 71
81 82 79 77 75 73 70 70 70 70 70 69 68 72 71 70 69 69 69 69 69 68 68 68 67 66 67 66 67 68 71 71
81 79 78 79 86 73 75 77 74 73 75 74 75 74 74 75 72 68 68 68 68 67 67 67 66 67 66 65 64 70 69 70
81 78 78 79 78 77 78 77 76 76 75 75 74 74 73 71 69 69 66 66 67 66 68 65 69 67 66 66 67 68 66 69
81 79 77 77 78 77 77 76 75 74 74 74 71 70 70 69 69 69 68 69 68 68 67 68 68 69 68 66 66 66 66 66
81 79 77 77 77 75 75 74 73 73 74 72 71 70 68 69 68 68 68 68 68 66 67 67 66 67 67 67 67 66 67 66
80 80 77 78 77 75 74 73 73 73 72 72 72 69 68 68 67 67 67 68 67 66 66 66 65 66 66 66 66 66 66 65
81 78 77 77 77 75 74 74 75 73 73 72 73 71 69 68 66 66 67 67 67 66 66 66 65 67 66 66 65 65 65 65
70 83 78 77 76 75 76 75 73 73 72 72 71 72 71 67 66 65 66 66 65 64 64 63 63 63 62 63 64 65 65 64
81 79 76 76 76 76 75 74 73 72 71 70 70 70 69 66 65 64 65 64 63 63 63 62 61 61 64 65 63 63 63 70
82 77 73 76 75 75 74 73 72 72 71 70 70 69 67 65 64 63 64 62 61 61 59 61 60 61 67 67 64 65 66 63
75 69 73 74 74 70 68 67 69 69 71 70 70 67 66 64 62 61 61 60 59 59 58 57 58 59 59 60 61 63 62 65
75 74 72 71 72 69 68 68 68 69 69 67 68 66 65 66 62 61 60 58 57 57 56 55 55 56 55 55 52 57 61 62
73 72 70 68 68 71 68 68 66 66 66 65 66 65 66 64 61 60 58 57 55 55 55 54 52 54 54 52 48 48 53 58
71 72 71 70 68 67 65 64 62 64 64 64 64 64 62 62 61 59 57 56 54 54 58 53 52 50 52 56 51 48 43 45
70 71 71 70 69 66 63 62 61 61 60 60 60 60 60 60 59 56 55 55 54 53 52 51 50 47 47 46 46 46 47 41
69 70 71 70 68 65 62 60 60 59 58 57 56 57 56 56 58 55 54 54 53 52 51 48 46 46 46 45 44 44 43 42
69 69 69 69 68 65 63 61 59 57 56 54 53 53 53 53 54 53 53 52 53 52 50 49 48 45 44 43 44 44 45 43
69 68 67 68 66 64 62 60 58 57 55 53 52 52 52 53 53 53 51 50 49 49 48 47 46 46 43 45 42 42 43 41

GFSFLT2_sfc_temp_015.txt.gz
Temp
67 69 70 69 69 69 69 70 70 70 70 70 70 70 70 70 70 70 70 69 69 69 68 68 68 68 67 67 66 66 64 64
68 67 68 66 67 68 68 69 69 69 70 69 69 69 69 69 69 69 70 69 69 69 68 68 67 67 67 66 66 66 64 65
70 70 68 67 66 69 69 69 69 69 69 69 67 66 67 68 67 68 69 69 68 68 68 67 66 66 66 66 66 62 64 65
72 72 69 69 77 68 66 69 67 67 67 66 66 65 65 69 68 68 69 68 68 68 67 67 66 62 63 65 61 63 63 63
72 72 71 71 70 66 66 66 65 66 68 68 68 67 66 64 63 64 61 65 62 65 64 63 62 62 63 62 63 63 61 62
72 71 72 70 69 68 68 68 67 66 67 68 65 63 63 63 63 64 62 61 61 62 61 63 63 65 64 63 63 62 61 60
72 71 70 71 69 66 67 66 67 66 66 67 65 63 63 63 62 62 62 62 62 62 62 63 63 64 64 63 63 63 63 62
71 69 69 71 68 67 66 65 67 65 64 65 66 63 62 62 62 62 62 61 61 61 61 60 60 61 62 63 63 62 63 62
67 66 68 67 69 69 67 67 68 64 65 66 66 66 63 62 60 60 61 61 61 61 60 60 60 62 60 61 61 62 61 62
68 70 66 64 65 67 67 66 66 65 64 63 64 64 63 60 60 59 59 60 59 59 58 58 57 57 57 58 58 60 61 61
64 64 65 66 66 66 65 67 67 65 63 63 63 63 62 59 59 58 58 58 57 57 56 54 54 55 59 59 57 57 58 64
66 64 64 65 66 65 63 63 63 63 62 63 62 61 62 59 59 57 58 56 55 54 53 54 53 53 60 61 56 56 57 57
64 62 62 64 62 61 60 60 62 62 62 62 62 62 63 60 57 57 55 55 53 53 52 52 52 52 50 52 52 54 54 55
63 64 62 63 61 60 61 61 61 61 62 61 61 60 60 63 55 54 54 53 52 51 50 49 49 50 47 48 44 49 51 54
63 63 63 62 62 61 61 60 59 59 58 61 60 58 58 56 55 53 52 51 50 49 49 48 46 47 48 45 40 38 43 48
62 63 63 65 62 58 57 54 54 55 55 54 56 55 55 56 54 52 51 50 49 48 53 47 46 43 45 50 44 44 40 39
60 62 63 63 61 59 56 55 55 55 54 52 52 52 54 54 54 51 50 49 47 46 45 44 44 43 43 45 45 42 40 36
61 62 62 62 63 61 57 54 54 51 50 49 49 50 50 51 52 49 48 47 46 46 46 45 47 46 46 45 43 42 42 40
59 60 62 61 59 57 55 54 52 49 48 47 47 47 47 47 47 46 45 45 45 44 44 46 46 44 44 41 40 39 40 40
59 61 60 58 56 55 54 53 52 49 49 48 47 45 45 46 46 46 45 45 44 43 45 42 44 42 41 39 40 40 40 41

GFSFLT2_sfc_temp_018.txt.gz
Temp
65 67 69 69 69 69 69 70 70 70 70 70 70 70 70 70 70 70 70 70 70 70 69 68 68 68 68 67 66 66 62 62
63 64 65 65 65 68 68 68 69 69 69 69 68 69 69 69 69 70 70 70 70 69 69 68 68 67 66 66 65 65 62 63
64 64 64 64 65 68 68 69 69 68 69 69 66 65 66 66 67 68 69 69 69 68 68 67 66 66 66 65 65 61 62 62
66 65 65 65 73 66 65 68 66 66 66 65 64 63 63 67 66 68 68 68 68 68 67 66 65 61 61 64 60 61 60 62
68 68 67 66 68 63 63 64 63 64 65 64 63 64 62 62 61 62 60 64 61 62 62 61 61 60 60 60 61 61 58 59
69 68 66 65 65 64 64 64 64 63 64 64 62 61 60 60 59 60 60 59 59 59 58 60 61 62 62 61 61 60 59 59
68 67 66 66 66 64 64 64 63 63 63 64 62 61 60 60 60 59 59 59 58 58 59 59 59 60 61 61 61 61 60 60
65 65 66 68 66 67 65 64 63 63 62 64 64 61 60 59 59 59 58 58 58 57 57 57 57 58 58 60 60 60 60 60
67 66 65 66 68 67 66 64 64 62 62 62 62 61 60 58 57 57 57 57 57 57 56 56 56 58 56 57 58 59 58 59
66 69 64 64 65 65 66 66 62 62 61 61 61 61 60 57 57 56 56 56 56 55 54 54 53 53 52 54 54 56 57 58
63 62 63 63 64 63 62 62 61 59 59 59 60 60 60 57 56 55 55 55 53 53 53 50 50 51 55 54 53 53 54 60
61 61 61 62 62 60 58 59 59 59 58 59 60 59 59 56 55 55 54 53 52 51 50 51 49 49 56 55 50 51 52 51
59 59 60 61 59 57 57 56 58 57 58 59 58 58 58 57 55 53 52 51 50 50 49 48 48 48 46 50 48 50 49 49
59 60 59 59 58 55 56 56 56 56 59 59 57 56 56 57 51 50 50 49 49 48 47 46 46 48 44 43 42 47 45 49
60 60 61 59 59 59 58 58 56 54 54 53 54 56 55 52 51 50 49 48 46 45 45 45 43 44 45 43 39 37 41 45
59 61 61 61 59 57 56 53 53 52 50 50 50 52 52 52 51 48 47 46 45 45 47 43 43 41 44 48 47 45 40 38
57 59 60 59 57 56 54 52 51 50 49 49 50 50 50 50 49 46 45 45 44 43 43 42 42 41 41 41 41 41 43 38
56 58 58 59 56 55 53 51 50 48 47 47 50 49 46 46 47 44 44 43 42 42 42 42 41 41 41 40 39 37 38 36
57 57 55 55 53 52 51 49 48 49 51 50 48 46 44 44 44 43 43 43 43 42 42 44 44 43 40 40 39 38 40 38
54 55 54 54 53 52 51 50 51 52 51 49 46 43 44 44 44 44 44 43 43 41 40 39 41 38 38 38 39 40 39 40

GFSFLT2_sfc_temp_021.txt.gz
Temp
65 67 69 69 69 69 69 69 70 70 70 70 70 70 70 70 70 70 70 70 70 70 69 68 68 68 67 66 65 66 61 61
63 64 64 64 65 68 68 68 69 69 69 69 68 69 69 69 69 69 70 70 70 69 68 68 67 66 66 66 65 65 61 61
62 62 63 63 63 67 68 69 69 68 68 68 66 64 64 65 67 68 69 69 69 68 68 67 66 65 65 65 65 59 59 60
61 61 63 63 70 65 64 66 65 64 65 64 63 62 62 65 65 67 68 67 67 67 67 66 64 59 59 63 59 59 59 59
64 63 63 63 66 63 62 63 63 63 64 63 62 63 61 61 59 59 58 63 59 61 60 59 59 58 59 58 59 59 57 58
66 65 64 63 63 62 62 62 62 62 63 63 60 58 58 58 57 57 57 57 57 57 56 57 57 59 59 58 58 58 57 57
67 65 63 64 62 61 62 62 64 63 62 62 61 59 57 57 57 57 57 57 56 56 56 56 56 57 58 58 58 58 58 57
64 64 63 64 62 62 62 62 64 62 61 60 61 59 57 57 57 57 56 55 55 54 54 54 54 55 56 56 57 57 57 57
63 62 62 63 63 62 62 62 62 60 60 60 60 59 57 56 55 55 54 54 54 54 54 53 52 54 53 54 55 55 55 55
62 65 64 64 63 62 62 60 59 58 58 58 59 59 57 55 54 53 53 53 52 52 51 51 50 49 49 50 51 52 53 54
61 62 62 62 63 61 59 58 57 56 56 56 57 57 57 54 52 52 53 52 50 50 50 48 48 48 50 51 49 49 50 54
61 61 61 61 59 59 57 58 57 56 55 56 56 56 55 56 53 51 51 50 49 49 47 48 47 47 52 51 48 49 48 47
60 59 59 60 56 57 55 52 54 54 58 59 58 57 56 51 50 50 49 48 47 47 46 45 45 46 43 47 46 46 47 47
57 58 58 59 57 54 55 57 57 57 57 56 56 54 54 53 49 48 47 47 46 45 44 43 43 44 41 41 39 43 44 47
58 58 59 58 57 57 57 57 54 51 50 50 51 52 51 49 48 47 46 45 44 43 42 42 40 42 42 40 36 34 42 42
57 58 58 58 57 56 55 54 52 50 47 47 48 49 48 50 48 48 44 43 42 42 44 41 40 38 40 45 41 39 35 36
54 56 57 56 55 54 53 51 49 47 47 47 49 50 48 51 49 46 43 43 41 41 41 40 40 38 38 38 38 37 38 34
52 54 53 54 53 52 50 48 47 47 49 50 50 48 47 46 45 43 43 42 41 41 40 40 39 39 38 38 39 38 38 37
52 53 53 53 51 50 49 49 48 49 48 47 45 43 42 42 43 42 42 42 42 41 40 39 38 37 36 36 36 36 39 39
51 52 52 52 51 50 49 49 48 48 48 45 43 42 42 43 42 42 42 42 41 40 39 38 38 36 35 35 35 36 37 39

GFSFLT2_sfc_temp_024.txt.gz
Temp
69 67 69 69 69 69 69 69 70 70 70 70 70 70 70 70 70 71 71 70 70 70 69 68 68 67 67 66 65 66 60 62
63 64 65 64 65 68 68 68 69 69 69 69 68 69 69 69 69 69 70 70 70 69 68 68 67 66 66 66 65 64 60 60
61 62 62 62 63 66 68 69 69 68 68 68 66 63 63 64 67 68 68 68 68 68 67 66 65 64 64 64 64 58 59 59
60 61 61 61 68 64 63 65 64 64 64 64 63 62 62 64 64 66 66 66 66 66 66 65 62 58 58 61 58 58 58 58
61 61 61 61 64 61 61 62 62 62 63 62 62 62 61 60 58 57 57 62 58 59 59 57 57 57 57 57 58 58 57 57
62 61 61 61 61 61 61 61 61 61 62 62 60 58 58 56 56 56 56 56 56 55 55 56 56 57 57 57 57 57 57 57
62 62 61 62 61 61 60 61 62 62 61 61 59 57 56 56 55 55 55 55 54 53 54 54 54 55 55 55 55 56 56 57
62 61 61 62 61 61 60 60 61 61 59 59 59 57 56 55 54 54 53 53 52 52 52 52 52 53 53 54 54 54 54 54
60 61 61 60 61 61 61 62 61 59 59 58 58 57 55 54 52 52 52 52 52 52 52 52 51 52 51 52 53 52 53 53
61 63 61 60 60 59 60 58 58 57 56 55 56 56 54 52 52 51 52 52 51 50 49 49 48 48 47 49 50 51 51 52
60 60 60 60 59 57 57 55 56 55 54 54 55 55 55 52 53 51 54 50 48 49 48 47 47 47 50 50 48 48 49 52
60 60 59 58 57 56 56 57 54 54 55 57 55 57 55 55 53 50 49 48 47 46 46 46 46 45 50 50 47 47 47 46
61 60 59 58 55 55 53 52 52 54 54 56 56 55 52 49 48 47 47 46 45 45 44 44 44 44 43 44 44 46 45 46
57 58 58 57 55 53 53 52 56 55 53 50 51 50 50 50 47 46 46 46 45 43 42 42 42 42 40 39 37 41 43 47
57 57 57 56 55 53 52 52 51 49 48 47 48 49 49 48 47 46 45 45 43 41 41 40 39 40 41 39 35 33 38 42
54 55 55 55 55 54 53 50 48 46 46 46 46 48 49 49 47 47 44 43 42 41 43 40 39 37 39 43 40 39 36 36
52 54 54 53 53 52 49 46 45 45 45 48 50 50 50 48 46 44 42 41 41 40 39 39 39 38 37 37 37 37 37 36
52 54 52 52 51 50 49 47 46 45 46 49 48 45 44 44 44 42 42 41 40 39 39 39 38 37 37 36 36 35 34 33
50 51 50 51 50 50 49 48 47 47 47 45 44 43 41 41 41 41 41 41 41 40 39 38 37 37 35 35 35 34 35 35
50 51 50 50 50 49 48 48 46 46 46 44 43 41 41 41 41 41 41 42 41 40 39 38 37 36 35 34 34 34 34 34

GFSFLT2_sfc_temp_027.txt.gz
Temp
74 76 74 70 69 69 69 70 70 70 70 70 70 70 70 70 70 71 71 70 70 70 69 68 68 67 67 66 65 66 76 77
71 74 75 75 74 68 68 69 69 69 69 69 69 69 69 69 68 69 69 69 69 69 68 67 67 66 66 65 65 67 75 77
70 72 72 72 73 73 70 69 69 68 70 68 68 74 74 74 68 68 68 68 68 68 67 66 65 66 65 65 66 75 75 76
70 70 70 71 74 74 73 74 74 74 74 73 74 72 72 72 68 66 66 66 66 66 65 66 70 74 74 70 74 73 74 74
70 69 70 71 73 73 74 74 74 73 72 72 72 71 72 73 72 72 71 67 72 71 72 71 69 70 71 70 71 72 73 73
71 70 69 69 72 72 72 73 73 73 73 71 72 72 69 69 70 69 69 70 68 68 69 67 68 68 68 68 69 70 71 72
70 69 69 69 69 70 71 71 72 72 72 70 71 70 68 68 67 68 68 69 68 68 68 67 67 67 67 67 68 67 67 69
69 69 69 70 69 68 67 66 66 68 67 70 68 69 67 67 66 67 67 68 68 68 67 67 66 66 66 65 66 67 66 66
67 66 68 68 68 65 62 65 64 62 63 64 66 67 65 65 66 66 66 65 65 66 65 66 65 65 65 65 66 65 65 64
68 66 65 63 63 59 59 61 60 60 60 62 65 65 66 63 59 63 63 60 60 63 63 63 63 63 63 65 65 65 62 62
65 66 65 63 58 56 57 59 59 61 63 66 65 60 62 60 57 61 61 61 61 61 61 60 60 60 61 63 63 64 63 64
65 65 61 57 58 58 59 59 61 63 62 59 59 62 62 63 61 60 62 61 59 59 58 59 59 57 59 60 60 62 63 61
65 60 58 57 60 59 59 60 59 58 61 63 62 62 61 61 62 61 60 59 57 56 57 55 57 56 56 56 58 59 57 59
65 65 63 62 66 66 66 64 64 63 61 60 61 60 61 61 59 59 58 59 56 55 54 54 55 54 51 52 51 55 58 57
66 67 66 67 65 65 64 63 61 61 61 60 60 60 60 59 58 58 57 57 55 54 53 51 51 53 51 50 46 45 48 54
65 65 65 64 64 65 63 65 63 60 60 61 61 57 58 59 58 57 56 57 54 54 55 52 51 49 51 53 50 48 43 42
63 64 64 63 63 62 62 59 59 59 59 58 58 59 58 57 57 55 55 56 54 53 53 52 52 49 49 48 48 48 48 43
61 62 61 61 62 61 60 59 58 60 60 60 60 59 58 56 55 54 54 53 52 52 51 50 50 49 49 48 46 44 43 41
61 62 60 61 61 61 61 60 59 59 59 58 57 57 56 54 53 52 53 52 52 52 51 50 50 49 48 47 47 46 46 44
60 61 60 61 61 60 59 57 58 58 57 57 56 55 55 54 53 53 53 52 52 51 51 50 49 48 47 47 46 47 45 43

GFSFLT2_sfc_temp_030.txt.gz
Temp
80 80 76 70 70 70 70 70 71 71 71 71 71 70 70 71 71 71 71 71 70 70 69 68 68 67 67 66 66 67 83 84
79 82 83 81 79 69 69 69 69 70 70 69 69 69 70 70 70 69 69 70 70 69 68 67 68 67 66 66 66 69 84 85
79 83 81 81 82 75 70 69 69 69 71 69 70 82 81 80 67 68 68 68 68 68 67 67 68 68 67 68 68 83 82 84
80 80 79 78 81 80 80 81 82 81 81 80 84 80 80 78 71 67 67 67 67 67 68 70 75 81 81 75 81 79 82 81
78 77 77 79 80 82 82 83 82 81 79 80 80 80 81 83 81 81 80 72 82 78 79 79 76 76 77 76 77 79 81 81
78 78 77 77 82 82 81 83 82 81 81 78 79 80 79 80 82 80 80 80 77 78 78 75 75 75 75 74 75 76 78 79
78 77 77 77 78 79 79 80 78 76 77 77 81 81 77 79 77 80 79 80 79 77 76 76 75 75 74 73 74 74 74 77
78 78 78 78 78 77 76 76 76 75 68 67 71 76 76 76 76 78 79 78 76 75 73 73 74 73 73 73 72 73 73 72
77 76 78 78 77 75 74 74 73 68 66 65 69 72 72 74 76 75 70 70 69 70 71 73 73 74 72 73 73 73 72 70
75 74 75 73 69 67 65 64 65 64 64 66 68 70 70 69 69 67 68 71 71 71 70 69 70 70 69 71 71 72 71 69
73 74 71 64 62 60 64 63 64 64 66 67 66 63 64 67 70 69 69 70 69 68 68 67 66 67 67 68 69 69 70 71
74 73 67 65 58 60 64 65 67 70 70 67 67 69 69 70 69 68 69 69 67 65 64 66 65 65 65 66 66 67 69 68
74 69 64 67 64 63 66 65 66 64 70 70 69 69 69 69 71 69 68 66 64 63 63 62 63 64 60 63 65 66 64 66
73 72 73 74 75 74 75 73 73 73 71 69 69 69 69 69 67 68 66 66 64 62 61 60 61 62 56 56 55 60 65 65
73 76 76 76 76 74 73 72 71 70 70 70 69 68 69 67 67 67 66 65 63 61 60 58 56 59 59 54 50 50 54 59
77 76 76 74 73 74 72 75 73 72 72 71 70 67 67 68 66 65 64 64 61 61 62 58 57 54 58 59 56 53 47 46
75 74 75 73 73 73 72 70 69 69 69 67 68 68 66 66 65 64 62 63 62 59 58 57 58 55 55 54 53 53 53 48
72 73 72 72 71 70 69 67 67 69 69 67 68 68 67 66 65 63 62 61 60 59 58 57 55 55 54 52 50 49 49 48
70 71 69 70 69 69 68 67 66 66 65 66 64 65 65 64 63 61 61 61 58 58 57 56 55 53 52 51 52 51 52 50
71 71 69 70 69 67 67 66 70 68 65 64 63 63 62 62 61 61 60 60 59 58 56 55 54 52 50 51 52 51 52 50

GFSFLT2_sfc_temp_033.txt.gz
Temp
78 77 73 70 70 70 70 70 71 71 71 71 71 70 70 71 71 71 71 71 71 70 69 68 68 68 68 67 67 68 79 85
76 77 81 77 76 69 69 70 70 70 70 70 69 70 70 71 70 70 70 70 70 69 69 69 69 68 69 69 69 70 83 85
79 83 83 81 78 73 70 70 70 70 70 70 70 83 80 79 68 68 69 68 68 69 70 70 70 70 70 70 69 81 82 83
85 82 81 82 84 79 80 80 81 81 81 80 82 81 79 80 72 68 68 68 68 70 70 72 76 81 81 76 80 78 81 81
83 80 80 82 81 83 83 81 82 82 81 80 78 81 80 80 80 80 80 73 80 78 80 80 77 77 77 76 77 77 79 80
81 79 78 80 83 84 84 82 81 79 79 79 80 78 79 79 82 82 79 81 78 79 79 77 76 76 75 75 75 75 77 77
80 79 79 80 81 82 81 80 79 78 77 78 81 78 75 79 78 80 78 79 79 77 76 74 74 75 75 75 74 74 74 76
80 81 80 81 80 78 76 77 79 79 77 75 71 70 70 77 77 77 78 75 74 72 71 73 74 75 74 74 73 74 75 74
80 79 80 79 77 77 76 75 74 70 72 70 70 71 69 71 71 65 68 69 70 73 72 73 73 74 72 73 73 72 74 73
80 80 79 76 75 74 72 66 67 68 67 69 69 66 64 63 63 67 70 70 70 70 70 69 69 69 69 70 70 71 71 71
78 78 74 70 65 63 64 65 65 68 67 66 65 66 67 68 70 71 71 72 70 69 68 67 66 67 68 68 68 69 69 72
78 76 72 69 67 64 67 67 68 68 69 70 68 71 71 72 72 70 70 70 69 66 65 66 65 65 66 65 66 68 69 68
77 72 72 72 73 72 72 70 72 70 72 71 72 73 72 72 73 71 69 69 66 65 64 62 62 64 61 61 62 65 67 68
73 72 73 75 78 77 76 75 74 75 75 72 73 72 72 72 68 69 68 67 66 65 62 60 61 62 56 57 52 57 63 64
71 73 74 77 79 78 77 76 74 73 72 72 72 71 72 70 68 67 66 66 65 63 62 59 57 59 59 55 50 48 53 59
77 78 80 79 78 77 74 75 71 74 74 74 72 70 70 70 69 67 65 65 63 63 64 60 58 55 58 60 58 55 48 46
80 79 79 77 77 77 75 74 74 73 73 69 70 70 69 69 68 66 64 64 63 62 60 59 59 56 55 55 54 54 53 48
77 77 77 76 75 74 73 70 70 70 70 69 69 70 70 69 68 66 65 63 62 62 61 58 57 55 54 53 51 48 47 46
75 76 74 74 73 72 71 70 69 67 68 67 66 66 66 65 64 63 63 62 62 61 57 56 56 54 52 51 53 50 50 49
74 74 73 73 72 71 71 69 68 68 68 66 65 64 64 63 62 62 61 61 61 60 57 56 55 53 52 51 52 49 50 49

GFSFLT2_sfc_temp_036.txt.gz
Temp
70 72 71 70 69 69 69 70 70 70 70 70 70 70 70 71 71 71 71 71 70 70 69 69 69 69 71 70 68 69 68 73
69 72 73 70 70 68 69 69 69 69 70 70 69 70 70 70 70 70 70 70 70 70 70 70 70 69 70 70 69 72 72 71
70 74 73 71 70 70 69 69 69 69 69 69 68 72 71 72 68 68 69 69 70 70 71 70 69 70 69 70 71 70 71 70
73 74 74 72 76 71 70 72 71 72 72 70 68 71 70 73 68 68 68 69 69 70 71 71 72 69 69 69 67 68 69 69
75 72 73 74 73 74 74 73 73 73 72 72 73 73 71 67 66 67 65 67 68 68 70 69 69 67 66 65 66 67 66 67
75 74 73 72 75 75 74 73 69 70 72 74 71 70 71 70 70 70 69 68 68 68 66 66 66 67 67 66 66 65 64 65
73 73 73 73 73 73 72 69 72 70 72 72 70 69 68 69 69 69 68 67 64 63 63 64 65 67 66 66 66 64 65 64
73 74 73 75 72 70 68 69 70 70 69 68 68 66 66 67 65 63 64 63 63 63 63 63 63 64 64 64 64 63 63 63
74 73 74 72 72 71 69 69 68 66 67 67 67 66 64 63 62 61 61 62 63 63 63 62 61 63 61 62 62 61 61 62
75 77 73 71 70 70 68 65 65 65 64 65 63 63 63 61 61 61 61 62 62 61 59 58 58 57 56 57 58 60 61 61
74 73 69 66 63 63 63 64 65 65 63 63 63 63 63 62 61 61 62 62 60 60 57 56 54 55 58 56 55 56 58 64
75 71 67 65 65 65 66 65 65 64 64 64 64 65 65 64 63 61 61 61 59 57 55 55 53 53 60 57 54 54 57 56
73 68 66 66 67 66 66 64 65 64 66 66 66 66 66 64 63 62 61 59 57 57 54 52 51 52 50 50 51 54 54 54
69 69 67 70 72 70 69 67 66 67 67 66 66 66 66 65 61 60 59 57 56 55 53 50 50 51 46 46 43 47 50 54
68 69 69 70 70 72 70 69 66 65 64 63 65 66 66 64 62 60 58 56 54 53 52 51 47 49 50 45 41 39 45 48
70 69 72 73 72 70 67 67 64 65 64 65 64 64 64 65 63 60 57 56 54 53 56 51 49 46 47 53 47 45 40 38
69 71 73 72 72 70 68 67 65 65 63 62 63 61 63 63 62 59 57 55 54 53 52 51 50 47 45 44 44 44 43 38
69 70 73 72 71 70 68 65 64 62 62 60 61 60 60 60 60 56 55 54 53 52 52 51 48 47 46 44 43 41 40 39
71 73 71 70 69 68 66 65 63 62 61 59 59 58 56 55 55 54 53 53 53 52 50 50 48 46 44 43 43 45 46 43
71 72 70 69 67 66 65 64 61 61 59 59 57 55 55 56 54 54 53 53 51 51 49 48 49 45 44 43 43 44 43 42

GFSFLT2_sfc_temp_039.txt.gz
Temp
69 69 70 69 69 69 69 70 70 70 70 70 70 70 70 71 71 71 71 70 70 70 70 70 70 70 69 69 68 69 65 64
67 67 69 68 69 68 69 69 69 69 69 69 69 69 69 70 69 70 70 70 71 71 71 70 70 70 68 68 68 68 64 62
66 67 68 66 67 69 69 69 69 69 69 69 67 67 68 68 68 69 69 69 70 71 71 69 68 68 68 68 66 64 63 60
66 67 67 68 71 66 66 69 67 67 67 67 66 66 66 68 67 68 69 69 70 70 70 70 67 64 64 65 62 64 63 62
67 69 69 69 69 67 67 67 66 66 66 66 65 67 64 63 62 64 62 67 64 66 65 64 64 62 62 62 62 62 59 61
71 71 69 69 69 68 68 66 65 65 67 68 66 64 63 63 62 65 62 62 60 60 60 62 62 63 62 62 61 60 60 59
71 70 71 70 67 67 68 65 66 66 66 66 64 63 63 63 61 60 60 61 60 59 60 60 60 61 61 61 62 60 60 59
68 69 68 69 66 66 65 65 64 64 63 63 64 63 61 60 59 59 59 59 59 59 58 58 57 59 59 60 59 58 58 57
67 67 67 67 66 66 65 64 64 63 62 62 62 62 59 58 57 57 58 58 58 58 57 56 55 58 56 56 56 57 57 57
68 72 67 65 64 62 62 61 60 60 60 59 59 60 59 57 57 57 57 57 56 55 54 53 52 51 51 51 51 54 55 56
67 67 64 61 60 61 61 60 59 58 58 57 59 59 59 57 56 56 57 56 54 55 53 51 49 49 53 51 50 50 51 57
66 64 61 59 60 59 58 58 57 57 57 57 59 60 60 57 57 57 57 55 53 53 51 50 49 48 55 52 48 49 49 48
65 62 60 60 59 58 58 56 56 57 58 60 60 60 61 57 56 56 55 53 52 52 50 49 48 47 45 45 46 47 50 47
64 63 62 62 62 61 61 59 58 58 59 59 60 60 60 59 56 54 54 53 51 50 49 47 46 46 43 41 38 42 45 49
63 62 62 64 64 64 60 59 57 56 56 56 59 60 60 58 57 55 54 52 50 49 48 47 44 45 46 43 37 34 38 43
66 64 65 65 65 65 61 57 57 56 56 56 57 59 60 60 58 55 53 51 50 49 51 47 45 43 43 49 43 40 35 34
65 65 67 65 65 67 61 57 57 56 56 56 56 57 58 59 55 52 51 50 49 48 47 47 46 43 42 41 40 39 39 35
64 62 63 65 67 63 60 59 57 57 57 56 57 54 52 53 53 50 49 49 48 47 46 46 45 44 42 41 40 38 37 35
61 62 63 65 65 60 58 57 56 55 53 51 51 53 51 50 52 50 48 48 48 47 45 44 44 42 42 41 41 41 41 40
63 65 66 61 60 59 58 57 54 53 52 51 51 52 53 52 51 50 48 48 47 46 44 43 43 41 42 44 42 41 44 41

GFSFLT2_sfc_temp_042.txt.gz
Temp
66 69 70 69 69 69 69 70 70 70 70 70 70 70 70 71 71 71 71 71 71 70 70 70 70 69 69 68 66 66 61 61
65 66 67 67 68 68 68 69 69 69 70 69 69 69 69 70 69 70 70 71 71 71 70 70 69 69 68 67 66 65 60 59
65 65 66 65 66 68 68 69 69 69 69 68 66 65 66 67 67 69 70 70 70 70 69 68 67 66 67 66 65 61 59 58
65 65 65 66 70 66 65 69 66 66 66 65 64 64 64 66 67 68 69 69 69 68 68 67 65 61 61 63 59 60 59 58
65 66 66 66 67 63 62 62 62 63 64 64 64 65 63 61 60 61 60 64 63 63 62 61 61 60 59 58 59 58 55 56
65 67 66 64 65 63 63 63 63 63 64 65 63 61 60 62 60 60 60 59 58 58 58 59 59 60 59 58 58 56 55 55
65 68 65 65 64 63 64 63 63 63 63 63 64 62 61 60 58 59 58 58 58 57 57 57 57 58 58 57 56 56 56 54
68 68 66 66 64 64 63 63 63 62 61 62 62 60 58 59 57 57 57 57 57 56 55 54 53 55 55 54 54 54 54 54
67 67 66 64 64 65 62 63 63 61 60 61 61 60 58 57 56 56 56 56 56 54 53 53 52 54 52 52 52 52 52 53
67 69 65 64 62 61 61 60 60 59 57 57 59 58 58 56 55 55 55 54 53 52 52 51 50 49 47 48 49 50 51 52
64 65 63 60 60 60 59 58 58 57 56 56 57 58 57 56 55 54 54 53 52 53 50 50 47 47 50 48 47 47 48 53
65 64 60 59 59 58 57 57 56 56 55 56 58 58 58 56 55 54 53 52 51 50 49 48 47 46 53 50 46 46 45 45
63 60 58 60 58 56 55 55 54 55 55 57 58 58 58 55 54 53 52 51 50 50 48 47 45 45 43 43 43 45 45 44
63 62 60 60 60 57 57 55 55 56 56 56 58 57 56 55 53 52 52 50 49 49 47 45 44 44 42 39 37 40 42 46
62 61 60 61 60 59 57 57 55 54 53 53 55 57 57 56 54 52 51 50 49 47 46 45 43 43 43 42 36 34 36 40
63 62 61 61 61 60 58 59 56 54 53 54 54 56 57 57 55 52 50 49 48 47 48 45 43 41 42 46 41 40 35 32
61 62 63 65 62 62 60 57 56 53 53 53 53 54 55 55 52 50 49 47 47 48 48 44 43 42 40 40 39 38 37 34
61 63 65 65 62 61 60 58 54 53 52 53 52 51 50 51 51 49 49 47 47 45 43 43 42 41 40 39 39 37 36 34
61 64 63 62 60 60 58 57 56 56 55 51 49 48 49 49 50 50 49 49 46 45 44 42 41 39 39 39 39 40 43 40
62 62 60 59 59 58 58 57 54 51 53 53 52 51 51 51 50 51 49 48 46 43 43 42 40 39 39 39 39 40 39 39

GFSFLT2_sfc_temp_045.txt.gz
Temp
66 67 69 69 69 69 69 70 70 70 71 71 70 70 70 71 71 71 71 71 71 71 70 70 70 69 67 66 65 65 59 59
63 65 67 66 67 68 68 68 69 69 69 69 68 69 69 70 70 70 71 71 71 70 69 69 68 67 66 65 64 64 57 57
63 63 65 65 66 68 68 69 68 68 68 68 65 63 64 65 68 69 70 70 69 69 68 66 65 65 65 65 63 57 57 56
63 63 64 65 69 65 65 67 65 65 64 64 63 62 63 65 67 68 68 68 68 67 66 65 63 59 58 61 56 56 56 55
63 63 64 65 66 63 62 62 63 63 63 63 63 63 62 61 61 60 60 64 60 61 61 60 58 57 56 55 55 54 51 53
63 64 64 63 63 62 62 62 61 61 63 63 62 60 58 59 58 58 58 57 56 56 56 56 56 56 56 55 54 52 51 51
63 65 64 63 62 61 61 61 61 62 63 64 63 61 59 58 58 57 56 56 56 55 55 55 54 54 54 54 53 52 52 51
64 65 64 63 62 61 60 62 62 62 61 61 62 59 57 57 56 56 56 55 54 56 54 52 51 52 52 52 51 50 51 50
64 65 63 62 62 63 62 62 62 60 60 61 60 58 57 56 55 54 54 54 53 52 51 51 50 52 49 50 49 50 50 50
65 68 64 63 61 60 60 60 60 59 58 58 58 58 57 54 54 53 53 53 52 51 50 49 48 48 47 47 47 48 49 49
64 64 62 61 59 59 59 59 58 56 56 56 57 57 56 55 54 53 53 52 50 52 48 48 46 46 48 46 45 45 46 50
65 62 59 59 58 57 57 56 56 55 55 55 56 56 56 55 53 52 52 50 49 49 47 46 45 45 51 48 43 44 43 44
62 59 58 59 58 56 55 54 54 54 54 56 57 56 56 54 52 51 50 50 49 49 47 46 43 43 42 42 41 42 43 43
59 60 58 59 60 56 56 54 54 54 55 55 56 56 55 54 52 51 50 49 48 47 46 43 43 43 41 38 37 40 41 43
60 60 59 60 59 57 54 54 53 52 52 52 54 55 55 54 52 50 49 48 47 46 45 45 42 42 44 43 35 33 35 39
63 61 60 60 60 58 55 54 52 53 52 52 53 54 54 54 52 50 49 47 46 46 47 43 42 41 40 44 40 39 34 32
61 60 60 61 61 59 55 54 53 52 52 52 52 52 53 52 50 49 48 47 45 45 46 43 42 41 40 38 37 36 35 34
58 59 59 61 60 59 56 54 52 52 50 50 49 48 48 49 49 47 47 47 46 44 45 44 42 40 39 38 37 36 35 33
59 59 59 61 62 61 57 56 54 53 52 51 48 46 46 47 48 47 49 48 47 45 45 44 41 41 38 38 38 38 38 37
59 60 60 62 62 60 56 54 55 55 54 53 50 50 49 49 49 48 48 49 47 46 44 42 41 39 39 38 38 38 38 37

GFSFLT2_sfc_temp_048.txt.gz
Temp
65 66 69 69 69 69 69 70 70 71 71 71 70 70 70 71 71 71 71 71 71 71 70 69 68 68 67 65 65 65 58 59
63 65 65 66 67 68 68 69 69 69 69 69 68 69 69 70 70 70 71 71 70 69 68 68 67 66 65 64 63 62 56 57
59 62 65 65 65 68 68 69 68 68 68 68 65 63 64 64 68 69 69 69 69 68 67 66 65 65 64 63 61 55 55 55
61 62 64 65 68 64 64 67 64 64 64 63 62 62 62 64 66 68 68 67 67 67 66 64 61 57 56 59 53 53 53 55
60 61 62 64 65 62 62 62 62 62 62 62 62 62 61 60 59 59 59 63 60 60 58 57 56 55 54 52 52 52 51 52
60 61 62 63 63 62 62 61 61 60 62 62 61 59 58 59 59 59 57 57 56 55 54 54 54 54 53 52 51 51 50 51
59 61 63 63 62 61 61 60 61 61 62 62 62 60 58 58 57 57 55 55 54 53 53 53 52 52 51 51 51 50 50 50
62 63 62 62 61 60 60 60 61 61 61 62 62 60 57 57 55 55 54 54 53 53 55 51 50 51 50 50 50 49 50 49
61 62 62 61 60 60 59 60 62 60 60 61 60 59 57 55 53 53 52 52 52 52 53 50 49 51 49 49 49 49 49 49
63 66 61 60 59 60 60 61 60 59 58 58 57 57 56 54 53 54 52 52 51 50 49 48 47 48 47 46 46 48 48 48
61 61 60 59 59 59 59 59 58 58 57 56 56 56 55 55 57 55 53 51 50 51 48 48 46 46 48 46 45 45 46 50
61 60 59 58 57 57 56 56 56 55 55 55 55 55 55 53 52 52 51 50 48 48 47 46 45 45 51 47 43 44 44 44
60 59 57 57 56 55 54 54 56 54 54 55 55 55 55 53 52 51 50 49 48 48 46 45 44 43 43 43 42 42 44 43
59 59 58 58 59 55 55 54 54 55 54 54 55 54 54 53 51 50 49 48 47 46 46 43 43 42 41 39 37 41 42 44
60 59 59 59 59 56 53 54 54 53 52 52 54 54 54 53 51 49 48 47 46 45 44 44 42 42 42 41 36 35 37 41
61 60 59 59 58 59 54 54 52 53 52 51 55 53 53 52 51 49 47 46 45 45 46 43 44 42 41 44 43 42 36 35
59 58 58 59 58 58 55 53 54 52 51 53 53 50 51 51 49 47 46 45 45 46 45 43 45 41 43 42 39 37 37 35
57 58 58 59 59 57 56 55 53 52 51 51 48 48 48 47 47 46 46 46 44 46 45 44 44 42 42 38 38 37 37 33
57 57 57 59 58 58 59 57 54 54 53 50 47 45 44 45 47 46 46 47 45 45 45 45 45 42 40 38 38 39 39 38
59 58 59 59 59 59 59 57 55 53 53 53 50 47 47 49 45 48 46 46 46 46 45 43 41 41 38 38 39 38 39 39

GFSFLT2_sfc_temp_051.txt.gz
Temp
68 68 69 69 69 69 70 70 71 71 71 71 71 70 71 71 71 71 71 71 71 70 69 68 68 67 66 65 64 65 73 74
62 64 65 67 69 68 68 69 69 69 69 69 68 69 70 70 70 71 71 70 70 69 68 67 66 66 65 64 63 65 73 74
62 62 65 67 66 69 69 69 68 68 69 68 68 74 74 74 70 69 69 69 68 68 67 65 65 64 64 63 65 71 72 73
59 61 64 66 67 69 68 69 71 71 70 68 68 70 72 73 70 68 68 67 67 66 65 65 68 70 69 66 70 69 70 71
61 62 63 64 66 64 65 69 71 69 68 69 68 71 71 71 71 71 70 67 69 69 68 68 65 68 67 66 67 68 70 71
60 62 62 64 64 65 67 68 68 67 70 69 67 69 68 68 70 68 68 68 65 64 66 64 65 65 65 64 64 67 68 69
60 61 62 67 66 66 66 65 68 70 70 70 70 69 66 66 66 65 65 66 67 66 66 66 65 64 64 64 64 63 64 67
65 64 67 68 68 66 67 68 68 69 69 69 68 66 65 66 65 65 66 67 67 67 66 66 65 65 63 63 63 64 64 64
66 67 68 67 67 68 69 69 68 67 66 65 66 66 64 65 65 66 66 65 64 64 62 64 64 64 62 62 64 63 64 63
67 69 67 66 67 68 68 66 67 65 65 66 67 66 65 64 65 65 62 58 60 59 63 63 63 64 62 62 63 63 62 62
67 68 67 66 66 66 66 68 67 68 65 64 64 65 64 64 65 62 58 59 60 63 62 63 62 62 63 62 62 62 61 63
68 68 67 66 66 66 66 65 66 66 64 65 65 66 64 65 64 61 61 63 62 62 61 61 61 61 62 61 60 61 61 62
68 67 66 66 66 63 64 62 63 62 62 63 64 66 65 64 64 62 63 62 61 60 59 59 59 59 60 59 58 57 57 60
68 68 68 67 68 66 67 64 63 64 62 62 63 64 64 63 63 62 62 62 59 59 59 59 59 58 58 56 55 55 56 57
68 69 68 68 68 67 64 63 62 60 60 61 62 63 62 63 62 62 61 61 60 59 59 59 57 56 55 52 52 51 53 57
68 68 67 67 66 66 64 64 63 62 61 62 63 62 59 59 62 61 60 60 58 59 59 57 55 55 54 54 54 54 50 50
66 67 66 66 65 66 64 63 65 60 59 60 61 59 57 59 60 59 59 60 58 57 55 55 55 54 54 55 53 53 52 49
65 66 66 66 65 65 63 62 61 60 60 60 60 60 60 59 59 59 58 57 56 51 47 50 50 47 54 53 52 51 51 49
64 66 66 65 64 63 62 62 62 58 60 59 55 57 58 57 57 55 53 51 49 46 53 50 47 53 52 53 53 53 53 51
65 66 66 65 64 63 62 63 62 62 59 58 57 57 57 56 56 51 50 50 52 50 50 49 49 50 51 51 53 52 52 51

GFSFLT2_sfc_temp_054.txt.gz
Temp
68 71 71 69 69 69 70 71 71 71 71 71 71 71 71 71 71 71 71 71 70 70 69 68 68 67 66 65 65 68 81 81
64 64 70 71 70 68 68 69 69 70 70 69 69 70 70 70 70 71 70 70 70 69 68 67 67 66 65 65 66 69 81 82
62 63 62 66 68 68 69 69 69 68 70 69 70 79 79 78 71 69 69 69 68 68 67 66 65 64 65 66 69 79 80 81
62 61 61 66 68 68 69 72 75 73 74 75 79 78 80 77 70 68 68 67 67 66 66 67 71 79 77 71 77 77 79 80
61 62 64 63 62 62 65 69 71 73 72 74 76 77 75 76 73 75 74 71 76 74 74 77 74 76 75 75 75 77 78 79
59 59 61 60 63 63 64 72 73 73 73 74 73 75 75 77 78 77 75 78 74 74 74 71 71 72 72 71 72 75 76 78
59 61 62 63 63 63 68 71 72 76 75 75 77 77 75 77 76 77 77 75 75 72 71 72 71 72 73 72 71 71 72 77
59 61 62 64 66 70 72 71 73 75 77 76 74 76 73 74 74 75 73 74 75 75 74 74 74 73 71 70 70 72 71 72
65 68 68 68 70 72 75 76 77 77 78 75 75 74 74 74 72 70 72 74 73 73 72 73 73 74 70 71 73 70 71 71
71 72 71 73 73 74 75 77 77 78 76 72 71 74 73 72 73 73 74 73 72 65 70 73 73 73 71 73 73 73 70 71
72 73 74 73 74 74 74 74 76 77 76 74 73 73 72 73 74 74 70 65 65 66 71 72 70 72 72 73 72 73 69 72
75 75 74 74 74 73 74 75 76 77 75 70 70 74 72 72 74 72 69 70 65 66 66 70 71 72 72 71 70 70 70 68
74 73 74 75 75 74 74 72 74 74 76 74 70 73 71 72 73 70 69 67 65 63 67 66 67 69 68 68 67 66 64 66
74 76 75 76 77 77 77 76 76 75 73 67 68 69 71 72 71 70 70 69 62 63 67 67 68 68 67 64 61 64 63 64
75 76 77 77 77 78 77 76 74 71 68 68 65 66 70 70 71 70 70 65 60 64 67 66 65 65 63 62 59 58 62 67
77 78 78 78 77 77 74 74 72 73 69 65 65 66 67 71 71 68 65 65 65 67 68 67 66 62 62 63 60 61 57 56
77 78 78 78 77 75 74 73 76 77 68 67 65 65 69 68 66 64 63 68 67 67 65 64 57 50 55 52 58 61 60 55
76 76 77 77 76 74 73 72 73 73 69 68 67 68 67 66 63 61 64 67 66 65 60 52 51 51 53 53 59 58 58 57
75 75 75 76 75 74 73 72 71 71 70 68 66 65 61 60 61 64 66 66 59 51 57 58 54 49 51 59 57 59 60 58
75 75 75 76 75 73 73 70 70 70 70 68 67 62 56 61 60 63 56 55 54 59 55 52 53 48 55 54 58 60 59 58

GFSFLT2_sfc_temp_057.txt.gz
Temp
67 69 69 68 69 70 70 71 71 71 71 71 71 71 71 71 71 71 71 71 70 70 69 68 68 67 67 67 68 70 82 82
66 66 67 69 70 69 69 70 69 69 70 69 69 70 70 70 70 70 70 70 70 69 68 67 66 66 66 66 68 71 83 82
66 66 66 66 70 69 69 69 69 68 69 69 70 75 75 78 70 69 69 68 68 68 67 66 65 66 67 68 70 80 81 81
62 65 64 68 68 68 68 69 73 74 75 75 76 74 76 76 70 68 67 67 67 67 67 66 67 79 77 72 78 79 80 79
59 61 63 63 62 63 64 67 71 71 72 74 75 74 75 74 72 72 71 70 74 73 72 78 77 77 76 76 77 78 79 79
61 61 61 60 59 59 61 66 71 73 71 73 75 74 74 73 74 74 75 77 75 77 76 73 73 74 74 73 74 76 77 79
58 59 59 59 59 60 61 66 70 72 73 74 75 75 73 75 75 77 77 78 76 75 74 74 73 74 74 74 73 73 74 77
59 59 60 60 60 61 61 71 74 76 76 74 74 75 74 76 75 77 77 77 77 76 76 75 75 74 72 72 72 74 73 74
58 58 60 61 62 65 68 71 75 75 76 75 76 77 75 75 75 76 76 76 75 75 74 75 74 75 73 73 74 73 72 73
60 63 63 66 66 68 67 75 75 77 78 78 76 76 76 75 75 74 75 75 74 73 73 74 74 74 73 74 74 73 71 71
67 69 69 69 69 70 72 76 76 78 78 77 74 74 75 75 75 75 75 73 72 70 72 72 72 72 72 72 72 73 71 74
72 72 71 72 72 74 75 75 75 78 78 78 75 75 74 73 75 75 74 72 70 71 69 70 71 72 74 72 71 71 71 70
73 71 74 76 75 74 73 72 75 76 79 77 73 73 75 72 74 73 71 71 70 68 67 65 67 70 69 69 69 69 67 68
74 75 76 78 79 78 78 77 77 76 77 77 73 72 75 73 73 73 71 71 69 67 65 63 65 69 65 67 61 65 64 66
77 77 78 78 80 81 80 79 79 77 77 76 71 69 65 63 65 70 71 71 68 66 66 62 63 67 67 64 58 56 60 69
77 78 79 80 80 79 78 76 75 76 76 76 70 64 62 62 62 64 71 72 66 63 65 64 67 65 65 66 60 58 55 56
77 79 80 81 81 79 78 75 77 79 77 75 69 66 65 65 65 65 69 67 64 62 63 66 68 66 55 53 53 58 60 56
78 78 79 81 80 79 77 76 75 76 77 69 67 67 66 67 68 63 62 62 61 62 67 66 59 55 59 53 51 53 57 57
79 79 79 80 79 79 78 76 75 74 70 71 69 67 67 65 67 59 58 58 60 64 58 56 59 57 53 52 52 55 58 59
79 79 79 80 79 77 75 76 75 74 74 74 72 70 66 66 58 57 55 52 51 52 53 59 54 51 49 52 51 57 61 60

GFSFLT2_sfc_temp_060.txt.gz
Temp
66 66 67 68 68 69 70 71 71 71 71 71 71 71 71 71 71 71 70 70 70 69 68 68 68 68 68 67 67 68 71 71
65 65 65 64 64 69 68 68 69 69 69 69 69 69 70 70 70 70 70 70 69 69 68 67 67 67 67 68 68 67 71 70
65 64 64 64 64 65 67 70 68 68 69 69 69 70 69 71 69 69 69 68 68 68 67 66 66 67 68 68 68 67 70 68
64 64 63 64 63 64 65 67 67 69 70 69 70 68 69 68 67 67 67 67 67 67 67 66 67 65 65 68 66 67 68 66
60 63 63 64 64 64 65 64 65 68 70 69 68 68 67 66 65 65 64 66 66 66 64 65 66 66 64 63 65 66 64 65
59 60 60 61 61 61 61 62 65 66 67 69 67 68 67 66 65 65 65 65 64 65 64 65 65 66 66 65 65 64 63 62
58 59 58 59 58 60 59 59 63 66 67 70 68 67 66 66 66 66 66 67 66 66 64 65 64 65 65 65 65 65 65 64
58 58 58 58 57 58 59 61 63 66 68 69 69 67 67 66 67 67 67 67 67 66 64 64 64 64 64 64 64 64 64 64
58 58 58 58 58 58 59 62 66 67 68 69 69 69 68 68 67 66 67 66 67 66 65 65 64 66 63 64 63 64 63 64
59 61 59 59 58 59 62 66 66 68 68 68 68 70 69 67 66 66 66 66 65 64 63 63 62 62 61 61 62 63 63 63
61 61 61 60 61 63 63 65 67 69 69 70 69 69 69 67 67 66 66 64 63 63 62 63 62 61 62 61 61 60 61 67
63 63 62 63 63 65 66 63 70 69 69 69 69 69 68 67 67 66 66 64 62 61 61 62 62 63 69 64 59 60 60 59
65 64 65 65 64 64 64 65 68 68 68 70 68 68 68 66 66 66 65 63 61 61 60 59 60 62 61 57 57 58 58 57
67 67 67 68 68 69 69 69 69 69 70 69 68 68 68 68 66 64 64 61 61 60 60 57 59 60 57 55 50 52 55 57
69 69 68 68 72 73 72 70 69 68 68 68 68 66 64 66 66 63 62 62 60 60 59 59 57 59 60 53 49 47 49 56
70 70 71 71 73 73 70 70 68 69 69 70 69 66 64 63 62 61 60 60 59 60 61 59 58 56 57 59 52 51 48 48
71 71 73 74 73 73 69 70 69 69 68 68 65 63 63 63 62 61 61 60 60 59 57 56 58 56 55 49 49 52 49 49
72 73 74 75 74 72 71 70 69 69 68 66 65 63 62 63 63 61 61 59 57 55 55 54 53 51 52 51 50 49 49 48
72 73 73 75 74 74 73 70 69 68 67 65 63 62 61 62 62 61 58 57 55 55 53 50 51 49 48 49 50 50 51 50
73 73 73 75 74 73 71 70 70 67 64 66 64 64 62 62 62 58 57 55 52 51 50 50 49 46 47 48 47 48 50 51

GFSFLT2_sfc_temp_063.txt.gz
Temp
65 65 64 65 67 68 69 70 70 72 72 72 71 71 71 71 71 71 70 70 70 70 69 68 68 68 68 67 66 68 65 66
63 64 63 62 63 65 67 68 68 69 69 70 69 70 70 70 70 70 70 70 69 69 68 68 68 68 68 67 67 67 64 63
63 63 63 62 62 64 66 70 67 67 67 67 66 67 68 68 68 68 69 68 68 68 68 67 67 68 68 67 66 64 64 63
63 62 61 62 64 64 64 66 65 66 65 65 64 66 67 67 67 67 68 68 68 68 67 67 66 62 62 64 60 62 62 60
62 62 62 62 62 64 64 64 64 66 65 66 66 65 64 64 63 62 62 65 64 65 64 62 62 60 60 60 60 59 57 59
60 61 61 61 63 63 63 64 62 64 66 65 64 63 64 63 62 61 62 63 62 61 61 61 62 63 62 61 60 57 55 56
58 60 59 60 60 61 62 61 62 64 65 66 65 64 63 63 62 62 62 62 61 60 61 61 61 61 60 61 61 59 58 57
57 57 59 60 59 60 60 60 62 64 65 66 65 64 64 62 62 63 62 62 62 61 61 60 59 60 60 61 61 60 59 58
56 57 58 59 58 58 58 61 63 64 64 66 65 65 64 62 63 62 62 62 62 61 60 59 59 61 60 60 61 61 60 59
58 59 58 58 58 58 59 62 62 64 63 63 64 66 65 64 62 62 63 62 62 60 60 59 59 58 57 57 58 59 60 60
58 58 58 59 58 60 61 61 61 66 61 62 64 66 66 64 63 62 62 61 61 61 59 59 58 57 58 56 56 56 58 63
58 59 59 59 59 60 58 57 59 61 62 63 64 65 65 64 63 62 62 61 59 58 58 58 58 59 66 61 56 55 55 55
57 57 58 59 58 57 58 58 59 61 62 65 65 65 65 63 63 62 62 61 58 58 57 57 57 59 58 57 56 55 55 54
58 58 58 59 60 61 61 61 62 64 63 63 64 65 65 64 64 62 61 59 57 57 56 54 57 58 56 55 52 51 52 53
60 60 60 61 62 62 62 63 62 62 63 63 63 64 65 64 63 63 61 59 58 57 58 57 55 57 56 55 49 48 47 50
62 63 63 63 65 63 62 62 62 63 61 62 62 64 63 62 61 61 61 61 60 58 58 57 56 53 53 56 52 51 47 44
64 64 64 65 65 65 65 64 64 65 64 62 61 62 62 61 61 58 58 58 57 57 57 55 54 52 51 48 47 48 48 46
65 65 65 66 66 66 65 66 64 63 63 62 62 62 62 61 60 59 59 58 57 55 55 54 52 50 49 47 47 46 47 47
65 65 65 66 67 67 67 66 67 65 61 61 60 59 59 59 59 57 57 55 54 54 54 53 51 49 48 46 47 47 48 48
66 66 66 68 68 69 70 69 66 64 63 61 62 61 60 59 59 58 57 54 52 52 51 50 50 48 46 46 46 46 48 48

GFSFLT2_sfc_temp_066.txt.gz
Temp
63 63 63 64 64 68 70 71 71 72 72 72 71 71 71 71 70 70 70 70 70 70 69 69 69 69 68 67 66 66 62 63
63 62 62 62 61 63 64 68 70 70 70 69 69 69 69 70 69 70 70 70 70 70 69 69 68 68 67 66 65 65 60 59
62 62 62 61 62 62 62 65 67 68 68 68 67 66 67 67 68 68 69 69 69 68 68 67 66 66 67 66 65 61 59 59
61 61 61 62 63 63 62 64 64 65 65 65 65 65 65 66 67 67 68 68 68 67 67 66 64 59 61 63 58 59 59 58
60 61 62 62 62 63 63 63 63 63 63 64 65 65 64 63 64 63 63 65 63 63 62 60 60 58 58 57 57 57 56 58
61 61 61 61 63 63 63 63 63 64 65 65 64 63 62 61 62 61 62 59 61 60 58 58 59 60 58 58 57 55 54 56
59 60 60 60 60 61 61 60 62 64 63 64 65 63 61 60 59 60 60 59 59 58 58 59 58 59 59 58 56 55 56 56
59 60 60 60 60 61 60 61 63 65 65 64 63 63 62 61 59 58 59 59 59 59 59 58 58 58 57 58 58 56 56 56
57 58 59 59 60 59 60 62 67 65 64 64 63 63 62 60 58 58 58 60 59 58 58 58 57 58 59 58 58 57 57 57
58 59 59 59 59 59 60 62 62 63 63 64 64 64 62 59 59 58 60 59 58 58 57 56 56 56 56 56 57 57 57 57
57 58 60 60 60 61 61 60 62 63 62 63 64 63 62 60 60 61 59 59 58 58 56 57 55 55 56 54 54 55 56 59
58 59 59 58 59 59 60 58 60 61 62 61 62 62 63 62 61 60 60 59 57 57 57 56 56 56 62 58 53 54 54 53
58 58 57 57 57 58 59 60 59 60 59 61 61 62 63 61 60 59 59 59 59 57 56 56 54 54 55 56 55 53 53 52
55 56 56 59 60 60 60 58 56 58 59 59 61 62 62 62 61 60 59 57 57 56 56 53 54 56 54 54 51 51 52 54
55 56 56 58 59 59 57 56 57 57 60 61 59 61 63 62 61 60 61 59 57 57 57 56 53 55 57 55 48 48 50 53
57 57 57 59 59 59 58 58 58 61 63 63 59 60 61 62 62 61 60 60 57 56 57 55 56 53 52 52 50 50 46 46
58 58 58 60 59 60 59 59 61 61 61 59 59 59 62 62 62 61 61 60 58 57 54 54 54 52 52 48 47 47 47 46
59 59 59 60 61 60 59 59 59 60 60 59 60 60 60 61 61 60 58 58 56 56 55 54 52 52 51 49 48 47 46 45
59 60 60 61 61 61 61 61 61 60 60 60 59 59 59 60 59 58 58 58 57 54 53 53 52 52 50 48 48 48 48 47
61 61 61 62 62 62 62 63 62 62 61 61 59 60 61 62 60 59 58 56 54 53 53 52 51 49 49 48 46 47 48 48

GFSFLT2_sfc_temp_069.txt.gz
Temp
63 63 64 64 65 64 68 69 70 72 72 71 71 71 70 71 70 70 70 70 70 70 69 69 68 68 67 66 65 65 58 61
62 62 61 61 62 63 65 66 69 70 71 70 69 69 69 70 69 70 70 70 70 70 68 68 68 66 66 65 64 64 57 58
62 61 61 62 62 62 62 62 68 69 69 68 67 66 66 65 68 69 69 69 69 68 67 67 66 66 65 65 63 58 58 57
61 61 61 61 63 62 60 61 64 66 66 66 64 64 64 66 67 68 68 68 68 67 66 65 65 62 62 62 57 57 57 57
60 61 62 62 60 61 61 62 62 62 63 64 64 64 64 63 62 60 62 64 63 62 61 60 58 58 56 55 55 55 55 57
60 61 61 62 62 61 62 62 62 62 63 64 64 62 61 60 61 59 60 60 61 58 56 55 56 56 56 55 55 54 54 55
59 60 61 61 61 62 61 60 61 63 63 64 64 62 61 59 57 58 59 58 58 57 56 56 55 56 55 55 54 54 55 55
59 60 60 60 60 60 60 61 61 62 62 64 64 63 61 60 57 57 59 57 57 56 56 56 55 56 55 55 54 54 55 55
58 59 59 60 60 59 60 62 63 62 62 62 62 62 62 59 57 57 57 57 57 56 56 55 54 56 55 55 54 54 54 55
58 60 59 59 58 58 59 60 61 63 62 62 62 62 61 59 58 58 57 58 57 55 55 54 53 54 53 53 53 54 55 55
57 58 58 59 60 60 59 60 61 63 61 63 61 62 61 61 60 58 58 57 56 57 55 55 53 52 53 52 52 53 54 57
58 58 58 57 59 59 58 58 60 61 61 62 62 62 62 61 59 58 58 57 56 56 56 54 54 53 59 56 51 51 52 52
57 57 58 59 59 58 58 57 59 59 61 62 61 62 62 59 59 58 58 58 58 57 55 54 53 53 52 52 51 52 52 51
57 58 58 61 60 61 61 61 59 59 60 61 61 61 60 59 58 58 57 56 57 55 55 53 53 53 53 51 48 50 50 51
55 57 56 57 56 60 59 59 59 59 59 59 58 59 60 60 60 59 58 57 56 55 56 56 54 54 56 55 48 48 50 52
53 54 54 55 55 54 56 58 59 59 57 58 58 58 59 60 60 60 59 59 58 57 57 54 54 52 52 52 52 51 47 47
53 55 55 56 55 55 54 53 56 56 56 56 56 56 58 59 60 59 59 59 59 57 54 54 55 52 52 48 48 47 48 47
54 54 55 57 56 55 55 55 55 56 55 56 58 56 57 59 60 59 59 58 57 57 56 54 53 51 51 49 49 47 47 46
54 55 55 56 57 57 56 56 56 56 58 57 59 59 56 58 60 60 58 58 57 55 53 54 52 52 51 50 50 50 49 48
55 55 55 57 57 57 58 58 58 58 57 58 57 58 59 60 59 60 59 57 56 55 54 53 52 52 49 49 50 49 49 49

GFSFLT2_sfc_temp_072.txt.gz
Temp
62 64 65 66 65 66 67 69 70 71 71 72 71 71 71 71 71 71 71 70 70 70 69 68 68 67 67 66 65 64 59 62
62 62 61 61 62 65 66 68 70 69 70 70 70 69 70 70 70 70 70 70 70 69 68 68 67 66 66 65 64 63 58 59
61 61 61 61 61 62 66 68 68 69 70 68 67 67 66 64 68 70 70 69 69 69 68 67 66 65 65 64 62 57 58 58
61 61 60 60 61 59 63 65 65 67 68 65 65 63 62 65 67 68 68 68 67 68 67 66 64 62 63 62 58 57 58 58
61 61 61 61 60 58 61 62 64 64 64 63 64 63 62 63 64 63 62 64 63 64 62 59 57 58 57 57 56 56 56 58
60 61 60 60 62 59 60 62 62 62 62 64 64 62 62 60 61 57 58 56 57 59 59 56 55 55 56 55 55 55 55 57
60 61 61 60 60 61 61 61 62 62 62 64 64 62 61 60 57 58 57 56 57 57 58 57 55 54 54 56 55 55 56 57
59 60 60 60 60 60 60 61 62 62 62 63 63 62 60 60 58 58 56 58 57 59 57 56 54 54 53 54 54 54 55 56
59 59 60 60 58 58 59 61 62 62 61 62 61 62 61 60 57 57 57 57 57 57 55 53 52 54 53 53 54 55 55 56
59 60 59 59 58 59 59 61 60 60 60 61 61 61 61 59 59 58 58 57 56 56 54 52 53 52 51 52 53 53 55 55
58 59 58 58 58 58 58 59 60 60 59 62 62 61 61 60 60 58 58 57 56 57 54 55 53 53 53 52 52 52 53 57
58 58 58 58 58 57 57 57 59 59 59 62 63 62 62 60 59 59 58 57 56 56 55 54 55 54 59 56 52 52 52 52
57 57 57 57 57 57 55 56 57 58 61 62 62 62 61 59 59 58 58 57 57 55 55 55 54 54 53 52 52 52 52 51
57 58 58 59 59 60 58 55 57 58 59 61 61 62 62 60 59 58 58 56 55 55 55 53 54 53 52 50 49 51 51 53
57 58 59 60 61 60 57 57 56 57 58 59 59 60 60 60 59 58 57 55 55 55 55 55 53 53 55 55 49 47 50 51
58 58 58 57 55 58 59 59 58 61 61 58 60 59 59 59 58 58 57 56 55 55 56 55 55 51 52 52 52 52 49 47
53 53 54 54 55 57 56 56 60 57 58 59 58 56 58 58 58 58 58 58 57 56 55 54 55 53 53 49 49 49 49 49
53 52 53 54 54 53 55 54 53 53 53 53 53 54 55 56 57 57 58 57 57 57 57 55 55 55 52 49 49 49 47 47
53 53 53 54 53 54 54 54 54 54 55 53 53 53 53 54 55 56 57 58 58 57 56 55 53 52 52 51 51 52 51 50
52 53 54 55 55 55 55 55 55 55 53 54 53 55 53 56 56 56 56 56 55 55 53 54 54 54 52 53 52 52 51 50

GFSFLT2_sfc_temp_078.txt.gz
Temp
71 74 69 68 67 68 68 69 72 71 70 72 72 72 72 73 72 73 72 71 70 70 69 68 68 68 67 67 67 69 81 80
67 71 69 73 74 66 68 68 68 69 70 69 70 70 71 71 71 71 71 70 69 69 68 68 67 67 66 65 67 69 81 81
65 65 68 69 69 70 68 68 68 68 69 69 67 72 71 74 73 69 69 69 69 68 67 67 66 66 65 66 67 81 81 82
64 65 66 69 68 70 72 74 73 70 69 67 69 69 69 76 71 68 68 68 68 67 66 66 70 76 74 68 81 80 81 81
65 66 67 65 65 67 66 69 69 67 67 65 67 67 71 73 72 74 73 71 76 73 71 78 78 78 76 78 78 79 81 80
68 65 67 65 64 65 66 66 68 66 63 63 63 65 70 72 74 76 76 79 76 76 77 77 76 77 76 76 77 79 80 80
69 70 68 69 70 69 65 63 65 62 62 64 64 65 67 70 72 74 75 78 78 77 78 76 75 75 76 76 76 77 77 79
69 67 66 68 68 66 63 62 61 61 61 61 64 65 66 68 69 69 72 75 78 77 76 76 76 76 75 76 76 77 77 77
65 66 65 66 67 62 62 64 62 60 59 62 64 67 67 67 68 67 68 74 74 75 75 77 75 77 75 75 76 75 76 76
66 68 63 65 65 64 61 62 61 60 60 63 64 66 67 67 67 66 67 68 70 72 74 73 74 75 74 75 76 76 75 74
67 63 61 60 63 61 61 61 61 60 61 64 65 67 67 68 69 69 70 70 68 70 72 72 72 74 74 75 75 75 74 76
67 61 60 60 61 61 60 60 60 60 62 66 69 71 71 73 74 71 72 71 70 72 70 72 73 74 75 73 73 74 74 74
63 58 59 60 60 62 58 58 58 59 63 68 69 70 72 68 69 70 71 69 70 68 70 69 70 71 70 70 70 71 71 71
61 60 60 63 66 68 62 60 60 60 61 65 64 65 64 64 67 68 69 66 63 64 69 68 69 68 66 69 63 66 69 69
62 61 60 62 64 67 62 60 59 58 59 60 63 64 66 64 64 67 64 67 66 65 65 65 65 63 65 67 58 58 61 66
63 63 61 62 64 64 64 62 57 60 59 61 62 64 64 67 65 68 66 68 69 69 69 67 70 65 65 67 65 63 56 60
63 64 62 62 63 66 65 62 63 62 59 59 61 63 66 64 65 66 69 70 70 70 68 67 69 68 67 66 64 57 58 59
65 64 63 65 63 63 63 61 58 58 58 59 60 61 61 64 66 66 68 67 69 69 69 67 67 67 67 66 66 60 64 64
65 66 64 64 64 64 65 63 59 59 61 62 60 61 62 63 63 64 66 68 70 70 69 68 67 67 68 67 67 66 69 65
63 68 68 67 65 65 66 65 65 66 68 70 67 64 65 63 63 65 67 70 71 71 70 70 71 69 68 69 68 69 69 66

GFSFLT2_sfc_temp_081.txt.gz
Temp
76 77 74 68 67 67 68 68 67 69 73 72 72 72 72 73 73 73 72 71 70 70 69 68 68 68 68 68 68 70 82 82
76 74 72 71 70 67 68 68 67 70 70 69 68 69 71 72 71 71 71 70 70 69 68 68 67 67 67 67 68 70 82 81
68 72 71 70 71 70 67 66 68 68 70 68 67 68 70 73 73 70 69 69 68 68 67 66 66 66 67 67 67 83 82 82
67 71 69 69 71 74 76 77 77 73 72 72 69 69 69 73 70 68 68 68 67 67 66 66 69 75 75 69 80 82 83 79
68 66 71 72 70 72 74 73 73 72 72 69 66 67 66 69 68 69 71 69 72 71 70 76 77 77 76 79 80 81 82 78
69 67 69 71 73 72 74 73 73 71 71 66 65 64 64 66 67 70 74 75 73 73 75 78 77 77 78 78 79 81 81 77
69 71 66 68 70 73 69 72 73 71 68 68 64 64 65 65 67 73 76 78 76 76 78 78 77 77 78 77 79 80 79 77
70 68 67 71 72 71 67 67 68 67 64 66 64 63 63 64 65 69 77 79 78 78 77 77 77 77 76 77 78 79 79 77
72 70 67 70 68 65 63 63 61 60 60 62 62 62 63 67 65 69 71 77 77 73 75 77 77 77 76 77 78 77 78 77
72 69 69 68 67 62 62 60 59 59 59 59 61 62 65 64 65 68 72 73 75 73 72 72 75 76 75 75 76 77 76 77
72 69 69 68 67 62 61 60 59 59 59 58 59 61 62 63 66 68 69 71 68 69 70 70 72 74 75 75 76 77 75 77
73 69 64 64 61 62 60 59 59 59 62 59 60 61 63 65 66 65 67 67 68 70 68 70 71 74 76 75 75 76 76 75
69 64 61 61 60 59 58 57 57 58 61 62 62 66 67 68 70 70 70 68 69 70 70 69 71 74 72 71 72 73 73 74
69 67 63 62 62 62 60 59 58 59 61 63 64 66 69 73 72 70 70 69 70 69 69 68 70 72 69 69 63 67 70 71
69 64 63 64 64 62 60 59 58 57 58 62 65 65 69 71 69 69 67 71 70 70 71 70 68 69 69 66 60 59 65 69
67 64 63 64 64 61 59 58 56 59 60 62 66 67 66 67 68 67 67 68 69 68 71 69 68 64 63 64 68 67 58 53
67 65 64 66 65 62 62 60 60 60 61 62 63 64 65 66 65 65 64 65 69 67 68 67 68 65 65 66 65 65 64 62
69 67 65 65 66 64 64 62 59 57 58 59 61 62 62 63 66 62 63 64 66 68 68 66 66 66 65 65 65 64 63 61
70 69 66 65 65 65 65 65 64 59 59 59 60 60 60 61 62 63 63 65 69 69 66 67 66 65 64 65 66 66 69 67
71 70 69 65 64 65 67 67 66 67 63 62 62 61 61 62 62 63 64 64 67 70 67 68 68 66 66 66 67 70 70 70

GFSFLT2_sfc_temp_084.txt.gz
Temp
74 74 72 68 68 68 68 68 68 67 66 64 72 72 72 72 72 72 71 71 70 70 69 69 69 69 69 68 68 71 74 72
71 72 71 70 67 67 68 68 68 68 66 67 69 70 71 71 71 70 70 70 69 69 68 68 68 68 67 68 69 69 73 71
71 69 70 69 69 69 67 68 68 67 67 66 67 69 67 70 70 69 69 69 69 68 67 67 67 67 68 68 67 73 73 69
69 70 67 69 70 69 69 69 68 67 65 66 67 67 67 69 68 68 68 68 67 67 66 66 68 65 65 66 67 73 71 68
68 68 68 66 67 68 69 67 67 68 66 66 67 66 66 65 65 66 66 67 66 65 65 68 67 66 66 67 68 74 70 68
68 68 68 69 67 68 67 67 67 67 67 67 66 65 64 64 64 64 66 66 65 65 66 66 66 67 68 69 70 73 69 67
69 69 67 68 68 68 68 67 67 67 67 67 66 65 64 65 65 63 67 68 67 65 67 69 67 67 68 69 70 71 68 67
69 69 67 68 67 68 67 68 67 66 66 67 66 65 63 64 63 64 69 69 69 68 68 68 68 67 67 69 71 71 69 67
67 66 66 66 68 66 65 65 65 65 66 66 65 65 64 63 63 63 69 70 69 68 69 67 66 69 67 67 68 70 70 67
69 68 66 66 64 63 60 60 60 60 60 65 65 64 65 63 62 62 64 66 67 69 66 64 64 64 64 65 67 69 69 68
69 66 66 65 63 62 59 59 58 58 59 59 63 62 63 63 62 62 62 62 64 66 65 63 63 64 65 64 66 66 66 71
68 67 66 65 63 60 59 58 58 58 57 58 59 60 60 60 59 60 61 61 63 63 63 63 63 64 71 68 65 65 65 64
67 65 65 63 61 58 57 56 56 56 57 58 58 59 60 59 58 59 60 60 61 63 62 62 62 64 62 62 63 64 63 64
66 66 64 63 62 60 59 58 58 57 57 59 59 59 60 60 61 61 62 61 61 62 62 60 61 63 59 58 55 58 62 63
65 65 63 63 62 60 59 58 57 56 57 58 58 60 62 64 63 64 64 63 62 62 61 61 59 60 61 58 53 52 55 60
68 64 63 63 62 59 57 56 54 57 58 59 59 62 63 64 64 65 63 63 62 62 63 63 61 60 58 60 57 58 53 51
67 64 63 64 62 60 58 57 59 59 58 58 59 62 63 64 65 64 63 63 62 64 63 61 60 59 59 58 57 58 57 55
65 62 62 63 62 60 59 59 58 56 58 58 59 60 61 63 63 63 63 62 63 62 61 61 60 60 60 59 58 57 56 54
64 63 61 62 62 62 61 60 60 58 58 59 59 59 59 61 62 62 62 62 62 62 62 62 61 60 59 60 60 59 60 58
66 65 63 62 63 62 63 62 62 61 61 61 60 61 61 62 62 62 62 62 62 62 60 62 60 59 59 60 60 61 62 62

GFSFLT2_sfc_temp_087.txt.gz
Temp
69 69 69 69 68 68 68 68 69 68 68 66 66 65 72 72 72 72 72 71 71 70 70 70 70 69 69 68 69 69 67 67
70 68 67 64 65 67 67 68 68 67 68 66 65 65 71 71 71 71 70 70 70 70 69 69 68 68 68 68 68 68 67 66
68 68 66 65 64 66 68 68 68 67 67 66 65 66 68 70 69 69 70 69 69 68 68 68 67 67 68 67 68 68 66 65
66 67 66 65 66 64 64 66 66 65 64 65 65 67 66 67 68 68 68 68 68 67 67 67 67 64 63 66 69 66 66 65
66 66 65 66 65 63 64 64 64 64 64 65 65 65 66 66 65 65 65 66 65 65 65 64 63 64 64 64 68 66 65 66
63 65 64 65 65 65 64 64 64 65 63 65 65 65 64 64 64 63 63 64 61 62 60 61 62 65 65 64 67 65 64 64
63 63 63 65 63 62 63 63 63 64 65 66 65 65 64 63 64 63 64 63 62 60 61 63 63 65 65 66 66 64 65 64
62 63 62 62 62 62 61 63 63 63 65 65 65 65 64 63 63 62 62 65 63 63 61 64 62 65 63 67 65 65 64 63
63 62 63 63 62 62 62 61 62 62 64 65 65 65 64 64 63 62 64 66 65 64 63 63 62 66 64 65 66 65 64 63
63 64 61 64 63 60 58 58 58 61 63 65 65 65 65 64 62 61 63 66 65 64 65 64 62 62 61 63 66 64 63 63
61 61 60 61 61 60 59 59 58 59 60 63 64 65 64 63 62 62 62 63 64 64 61 63 62 61 62 61 62 65 63 65
62 61 60 60 60 58 58 57 57 58 58 61 63 63 64 63 62 61 61 62 63 65 61 61 63 63 68 63 61 64 65 63
61 60 59 60 58 57 56 55 56 56 57 59 61 62 61 61 59 59 59 62 62 62 62 62 60 61 60 59 60 62 63 62
60 60 59 61 60 59 58 57 57 57 57 57 59 60 60 61 59 58 58 59 60 59 59 58 59 60 60 57 53 57 59 61
60 59 59 61 61 60 58 57 56 55 55 56 58 60 60 59 58 58 58 59 59 58 59 60 60 58 59 55 50 49 54 57
60 59 59 61 61 58 56 55 54 56 56 58 58 59 60 60 60 61 60 60 59 59 60 59 58 58 56 59 57 56 51 49
60 60 61 61 60 59 58 56 58 57 57 56 57 58 60 60 61 61 61 60 60 61 59 58 57 56 56 55 55 55 55 51
59 59 61 61 60 59 58 57 57 54 56 55 56 59 58 59 62 62 60 61 59 59 59 58 58 57 57 57 55 54 53 54
59 59 60 61 60 59 59 59 58 57 57 56 57 58 57 58 60 61 60 60 60 60 59 59 58 57 57 58 58 58 57 56
59 59 61 61 60 59 60 61 59 59 59 59 59 59 60 57 58 60 60 59 59 60 60 58 58 57 57 57 58 59 58 58

GFSFLT2_sfc_temp_090.txt.gz
Temp
70 70 70 70 70 69 69 69 68 68 68 68 68 66 65 67 72 72 71 72 71 71 70 70 70 69 69 67 67 67 66 66
66 67 67 65 65 67 67 67 68 67 67 67 67 66 65 64 69 71 71 71 71 70 69 69 69 68 68 67 66 67 65 66
65 64 66 64 64 66 67 68 68 67 67 67 65 64 64 64 69 69 70 69 69 69 69 68 67 68 67 67 67 66 66 64
64 65 65 64 65 64 64 66 65 64 64 64 63 63 63 65 69 68 69 68 68 68 68 67 67 67 67 67 65 65 65 64
63 64 65 65 63 62 61 62 64 63 64 64 64 64 66 66 65 65 65 66 66 66 67 63 63 62 63 65 64 65 64 66
62 64 64 65 65 63 61 62 64 62 64 64 64 65 64 64 64 64 65 63 60 58 60 60 60 61 64 64 64 64 63 64
61 62 64 62 65 64 62 62 64 63 64 64 65 65 64 64 63 63 64 62 61 58 58 60 60 61 64 65 64 62 62 63
61 61 62 62 61 61 61 61 62 64 64 65 65 65 65 64 63 62 62 64 62 61 58 58 59 60 62 65 63 62 62 61
61 61 61 61 61 60 60 60 62 64 64 65 65 65 64 64 63 61 62 63 63 62 57 58 59 61 63 63 63 62 61 61
62 63 61 60 60 61 61 59 59 62 64 65 64 64 64 64 62 60 62 63 63 63 59 59 58 59 61 62 62 62 61 60
61 61 60 59 60 60 59 59 58 60 62 64 64 64 64 64 62 61 60 62 62 62 58 62 60 58 61 62 62 61 61 62
62 60 59 59 59 58 58 58 57 58 57 61 64 64 64 64 63 61 61 60 62 62 61 59 60 60 64 61 62 61 60 60
60 58 59 59 57 57 56 55 56 56 57 59 62 63 62 62 61 60 61 62 63 63 63 62 59 58 58 56 58 61 60 60
59 59 60 60 57 58 58 57 56 56 57 58 61 61 63 62 62 60 60 62 62 63 62 58 59 61 59 56 53 55 56 60
59 59 59 59 59 59 57 56 55 55 55 56 59 61 61 61 61 60 60 61 61 63 63 63 61 57 60 54 49 48 52 54
59 58 58 59 59 58 56 55 53 55 56 56 58 59 60 60 60 60 59 58 59 62 64 63 62 59 55 57 56 54 51 49
58 58 57 58 60 59 57 56 57 56 56 56 56 57 58 58 59 58 57 57 58 60 58 58 59 55 55 53 53 53 53 50
57 57 57 58 59 58 58 57 56 54 55 55 55 57 56 58 59 59 58 57 57 57 58 58 57 56 55 55 55 54 53 53
57 57 56 58 59 58 58 58 56 56 55 55 55 56 56 56 58 58 58 59 58 58 58 57 57 57 56 55 56 56 57 55
57 57 56 58 59 58 59 59 55 55 57 57 57 58 58 59 57 57 57 60 60 59 58 57 56 57 57 57 57 57 57 57

GFSFLT2_sfc_temp_093.txt.gz
Temp
67 68 70 70 70 70 69 69 70 70 69 69 70 69 68 69 70 72 72 72 71 71 71 70 69 69 67 67 66 67 66 67
66 67 67 67 66 68 68 68 67 67 68 67 67 68 68 68 69 69 71 72 71 71 69 69 69 68 67 66 66 66 65 66
64 64 64 64 65 67 67 67 68 67 67 67 65 64 64 66 67 68 69 70 69 69 69 68 67 67 66 66 66 65 65 65
65 62 62 62 66 66 64 66 66 65 64 64 63 64 63 65 67 67 68 68 69 68 67 67 67 65 65 66 63 65 64 64
62 62 62 61 62 63 63 62 61 62 62 63 63 62 63 63 65 66 66 68 66 66 65 65 64 64 62 61 63 65 63 64
61 62 63 62 64 61 61 61 63 63 62 63 63 62 63 64 65 65 63 64 64 65 61 64 62 63 63 62 62 63 62 63
61 61 61 63 64 62 60 61 63 63 62 63 64 63 62 63 64 64 63 63 63 61 60 62 62 62 61 61 60 60 62 63
60 61 60 61 61 63 63 62 64 63 62 63 65 64 63 63 63 63 62 63 63 63 60 60 59 61 60 60 60 60 62 60
60 60 60 61 60 60 62 62 63 63 62 63 64 65 64 64 63 62 62 63 62 60 57 59 59 61 60 60 60 60 60 60
60 62 60 60 59 59 60 60 62 63 63 64 64 65 65 64 63 61 61 61 61 59 59 58 57 59 58 59 59 60 60 59
60 60 59 59 58 58 58 59 60 61 63 64 64 64 64 64 62 61 60 60 61 60 56 59 56 58 58 57 57 59 59 61
61 60 59 59 59 58 56 56 58 58 59 62 63 64 64 64 62 60 60 59 58 60 59 58 56 59 62 58 57 56 59 59
60 59 60 59 58 56 56 56 56 56 56 57 61 63 63 63 62 59 59 60 61 61 60 60 57 58 58 54 55 55 56 58
61 60 60 60 60 59 58 57 56 56 57 56 58 62 63 63 62 59 59 60 61 61 62 57 56 60 57 55 51 54 56 57
60 60 60 60 57 55 55 55 55 54 55 56 58 61 62 62 61 60 59 57 59 61 62 62 58 54 61 55 49 49 51 52
59 61 60 60 56 55 55 54 53 55 55 56 58 61 61 61 62 60 59 58 60 60 62 63 60 57 55 56 55 54 50 47
60 60 59 59 56 56 54 53 53 53 55 55 56 58 59 61 60 60 59 59 58 57 58 59 60 58 59 54 53 53 53 50
59 58 58 59 56 55 55 56 55 52 54 54 55 56 56 58 59 58 58 57 56 55 56 58 57 58 57 54 54 53 52 52
58 58 57 58 56 55 57 57 56 52 55 55 55 54 55 56 58 57 57 58 57 56 56 57 57 58 57 57 56 56 56 56
58 57 57 58 57 55 59 59 55 54 54 57 56 56 57 56 57 59 59 59 58 58 57 57 56 56 56 56 58 57 57 56

GFSFLT2_sfc_temp_096.txt.gz
Temp
67 68 70 70 70 70 70 70 70 71 70 71 71 70 70 72 71 71 70 72 71 71 70 70 69 68 68 67 67 67 65 66
65 66 67 67 68 68 69 69 69 68 69 69 69 69 70 70 69 70 70 70 71 70 69 69 68 67 67 66 66 66 64 65
64 64 64 64 65 68 68 68 67 67 67 67 66 65 66 66 67 69 70 71 71 70 69 68 67 66 66 66 65 63 63 63
65 62 62 62 64 67 67 67 67 66 66 65 64 64 62 65 67 68 71 70 69 68 68 67 66 64 64 64 61 62 62 63
65 62 61 61 62 64 65 65 64 64 64 64 64 63 63 62 63 64 65 68 66 65 66 66 63 63 61 60 61 61 62 64
64 64 61 60 60 62 63 63 62 62 62 62 62 62 62 62 62 63 65 65 64 62 63 62 62 61 61 60 61 60 60 62
61 64 63 62 61 60 62 62 63 62 61 62 63 62 61 62 63 63 64 65 63 60 60 61 61 61 61 61 61 61 61 62
59 63 63 64 62 61 60 61 63 63 62 62 62 63 62 62 63 63 62 63 61 60 61 61 61 61 60 61 59 61 61 61
59 60 60 61 60 61 61 62 63 62 62 63 64 63 62 62 62 62 61 61 61 59 59 60 58 60 59 60 60 59 59 60
60 62 61 59 59 59 59 62 63 63 62 62 63 63 63 63 62 61 61 60 59 59 60 59 59 58 57 57 58 59 59 59
59 61 61 59 58 57 57 59 62 63 63 63 64 64 63 62 62 61 60 59 59 59 56 59 58 57 57 55 57 57 59 60
60 61 59 58 58 57 57 57 57 59 62 63 64 64 64 63 62 60 61 59 59 60 57 58 59 58 60 56 55 55 57 57
59 60 60 60 59 58 57 57 57 56 56 60 62 64 63 63 62 59 60 60 59 59 58 57 57 59 56 55 54 54 56 56
59 61 61 61 60 61 58 58 56 54 54 57 58 61 63 63 61 59 59 58 58 59 60 57 56 60 56 55 51 53 55 57
60 62 61 61 61 59 56 55 55 54 54 53 55 57 61 63 61 60 58 57 57 58 60 61 57 57 60 54 50 49 51 54
61 62 61 61 59 57 55 55 52 53 53 54 57 57 60 61 61 60 59 57 57 59 62 61 59 57 59 57 56 54 50 48
62 61 61 60 57 55 54 51 55 57 52 55 57 58 59 61 61 60 59 57 58 59 60 60 61 59 58 53 53 53 53 51
61 60 60 59 57 54 53 52 53 52 54 54 57 57 59 60 60 60 59 57 57 58 59 61 59 58 56 56 55 54 52 52
60 59 58 58 57 54 53 53 53 55 54 55 54 55 56 58 59 59 58 58 58 58 57 57 56 57 57 56 56 56 56 56
60 59 58 58 57 54 54 53 53 56 52 56 56 56 56 57 58 58 57 57 57 57 57 57 55 55 56 57 56 58 57 58

GFSFLT2_sfc_temp_099.txt.gz
Temp
74 75 74 70 70 70 70 70 71 71 72 72 72 71 71 71 72 73 73 72 72 71 70 69 70 69 68 67 67 69 78 78
73 75 75 75 75 69 69 70 70 70 70 69 70 70 70 71 71 72 72 71 71 70 69 68 68 68 67 66 66 68 78 78
73 73 74 74 75 72 69 70 69 68 70 69 68 75 74 74 72 70 70 70 70 69 68 67 66 66 66 66 68 77 77 77
73 72 73 73 73 71 71 70 68 68 70 72 72 71 71 72 70 68 69 69 69 68 67 66 68 71 72 67 76 75 76 76
69 70 71 72 70 68 68 68 67 66 68 68 67 66 66 67 68 69 71 69 68 66 66 70 73 74 74 74 73 73 75 76
68 68 70 70 71 67 67 67 68 66 65 66 65 65 65 65 67 69 67 68 66 64 66 71 71 72 72 71 72 74 75 75
68 67 68 70 70 71 69 67 66 66 65 65 65 66 66 68 66 65 65 65 63 62 63 64 68 71 72 71 71 72 73 75
69 66 67 69 69 69 70 69 67 66 64 65 67 66 65 64 65 63 64 65 63 61 61 64 69 72 70 71 71 72 73 73
68 66 66 66 66 69 69 69 68 65 65 66 67 67 67 65 63 63 63 64 61 61 60 61 70 71 70 70 71 71 72 72
69 68 65 65 65 67 67 66 66 67 67 68 67 68 68 65 62 63 62 61 59 59 59 58 63 68 68 70 70 70 70 68
69 68 64 64 66 67 67 65 64 65 66 65 67 66 68 66 65 63 61 59 59 58 58 59 61 66 68 69 69 70 70 71
70 68 65 64 66 66 66 64 63 65 65 65 65 67 67 65 63 62 61 59 57 57 57 58 61 66 68 67 68 69 70 70
68 66 63 63 63 61 60 61 62 62 62 66 64 64 65 64 62 61 62 60 58 57 57 57 60 64 63 61 62 65 66 67
68 67 63 65 64 65 65 62 61 63 62 61 64 66 64 64 62 61 61 61 60 58 59 59 62 62 62 61 53 56 61 65
67 68 64 65 64 64 61 59 58 58 59 62 61 62 62 64 62 62 61 60 59 61 61 62 59 63 64 64 53 52 57 62
68 68 65 65 64 62 61 62 58 58 62 63 66 64 66 62 63 61 60 60 58 59 63 63 62 61 61 62 66 64 58 55
67 67 66 64 63 63 61 59 61 63 63 63 64 64 65 67 62 61 59 59 59 57 58 63 63 63 59 58 58 61 63 61
66 64 64 63 61 61 59 59 62 62 60 62 63 62 63 66 63 63 59 59 59 58 59 59 60 61 61 58 58 58 58 57
65 64 61 61 61 59 59 63 63 59 60 63 61 58 59 63 61 61 60 62 61 59 57 57 58 60 58 58 58 60 63 64
63 63 61 62 60 58 61 63 63 63 63 64 61 59 59 60 63 60 60 60 60 58 57 57 58 58 58 57 57 59 64 67

GFSFLT2_sfc_temp_102.txt.gz
Temp
82 80 77 71 71 71 71 71 72 72 72 72 72 72 72 72 72 72 71 73 73 72 71 69 69 68 68 68 68 71 86 85
82 82 81 80 79 70 70 70 70 71 71 70 69 69 70 71 70 71 73 73 73 71 70 69 68 67 66 67 68 70 84 85
82 83 81 80 80 77 70 70 70 70 71 69 69 80 78 77 74 71 71 71 71 71 68 68 66 66 66 67 68 83 82 84
84 83 83 81 80 79 79 79 77 76 78 79 80 81 81 80 76 68 70 70 69 70 70 66 66 73 75 68 82 79 83 80
83 82 82 82 83 76 73 73 73 75 73 76 77 76 77 78 79 78 77 70 73 71 66 66 68 73 75 76 79 81 84 79
79 81 80 80 84 78 77 69 71 72 71 70 71 73 71 70 72 73 71 74 72 68 65 66 71 76 77 76 79 82 83 77
77 78 80 80 80 79 74 70 70 73 71 69 69 72 70 68 70 70 75 71 67 65 65 66 73 73 76 78 79 80 81 80
82 78 78 80 80 79 80 78 73 71 71 69 69 71 69 68 69 71 70 72 68 65 65 65 72 74 76 78 79 80 80 79
81 77 77 78 79 80 80 82 76 72 69 69 70 69 70 68 68 68 70 69 63 63 63 63 64 73 76 78 78 78 79 79
83 78 76 73 78 80 81 80 77 76 72 70 69 71 72 71 69 67 68 65 63 61 61 61 63 69 73 77 78 79 78 78
83 78 75 70 71 78 78 72 70 73 73 72 72 74 73 72 69 65 65 61 61 61 60 61 62 69 73 74 77 78 77 77
83 79 76 69 68 77 78 68 68 69 68 73 73 72 73 72 70 62 61 59 58 59 59 60 61 69 72 73 74 76 76 76
81 78 77 69 68 70 68 64 65 69 67 70 72 71 70 69 67 63 61 59 58 59 58 58 59 64 65 65 66 71 71 70
80 80 78 73 75 76 75 70 67 70 68 71 72 71 68 68 65 64 61 60 59 58 58 57 58 62 61 63 55 58 65 68
80 80 79 75 78 78 74 71 67 66 67 64 68 71 67 65 65 63 61 61 60 60 60 60 58 60 64 65 55 55 59 65
81 81 80 76 77 75 70 69 67 71 70 66 65 69 67 65 64 64 62 60 59 62 63 61 64 61 66 70 71 69 60 57
80 80 80 76 76 75 72 73 75 75 71 67 68 71 71 67 62 64 62 61 60 60 63 63 64 64 66 67 68 68 69 67
78 77 77 76 73 73 72 72 72 71 70 70 70 68 71 70 69 62 62 62 61 60 60 63 63 66 69 69 67 63 64 64
76 76 76 71 68 71 72 71 72 71 71 72 71 66 66 69 68 65 61 61 61 59 58 59 60 61 64 65 64 62 60 61
75 75 74 67 66 69 71 71 73 73 71 73 72 70 69 68 66 66 64 62 60 59 57 58 59 59 61 60 60 65 62 61

GFSFLT2_sfc_temp_105.txt.gz
Temp
83 80 77 71 71 71 71 72 72 73 73 73 74 73 72 73 72 73 73 73 73 73 72 70 69 69 69 67 67 69 79 81
84 83 81 80 79 70 70 71 71 71 71 71 71 71 71 71 71 71 72 72 73 72 71 68 67 67 67 67 67 69 84 77
85 85 84 83 80 78 71 70 71 70 72 69 70 80 78 77 74 71 71 71 71 71 70 67 66 66 66 66 67 82 83 73
87 86 86 85 81 80 80 80 80 80 80 79 79 81 80 80 77 70 71 70 70 70 70 67 66 66 66 67 75 77 77 73
88 86 86 84 84 83 85 83 80 80 80 79 78 80 78 80 77 78 78 70 77 74 71 71 66 65 68 74 75 76 76 78
89 88 85 84 88 84 78 81 81 81 79 78 76 75 75 76 77 77 77 76 76 74 71 67 65 66 68 76 77 76 72 75
88 88 85 85 83 85 83 81 78 78 79 77 77 76 75 76 75 76 77 75 74 71 69 65 64 65 67 74 76 78 74 75
88 85 84 85 83 82 81 79 76 78 77 78 77 76 75 76 73 74 72 72 70 71 67 65 64 64 69 75 74 80 77 76
87 82 83 83 83 83 83 84 81 73 72 76 75 76 75 74 71 70 70 72 71 69 67 64 64 65 71 72 75 80 79 75
90 86 82 81 83 84 84 85 83 77 74 75 74 74 75 74 71 71 73 69 67 66 64 63 63 63 65 72 76 77 78 77
90 86 81 80 82 83 83 83 82 82 76 76 75 73 75 73 72 73 73 71 64 63 62 63 62 62 64 75 72 75 77 80
91 87 82 80 80 81 83 82 76 78 78 77 76 76 74 74 72 72 71 66 63 62 61 62 62 62 64 70 72 74 78 76
89 85 81 79 72 77 80 75 68 70 71 75 77 78 75 72 71 65 64 61 60 60 60 60 60 62 61 62 67 68 70 70
87 87 83 80 75 79 83 74 70 75 72 75 75 77 75 73 70 65 62 60 59 59 59 59 59 61 60 63 56 60 66 68
87 86 84 81 78 81 81 77 72 71 70 72 72 74 73 72 71 66 62 61 59 59 59 59 58 59 64 65 55 54 62 67
88 87 86 84 79 80 78 76 71 72 72 71 74 72 72 71 69 64 63 60 59 60 62 60 59 57 60 62 63 61 58 57
87 87 86 85 81 81 80 76 76 77 76 72 70 73 73 69 67 68 63 62 61 61 62 62 61 59 60 60 62 64 66 65
87 85 85 85 80 80 79 74 77 77 76 71 67 69 70 72 67 64 64 63 62 61 62 63 63 63 62 64 65 63 63 63
87 84 83 83 79 79 78 76 78 76 74 73 73 68 70 71 70 67 62 62 63 61 61 60 62 62 63 66 68 67 69 67
85 85 82 83 79 78 78 78 78 78 76 76 76 72 70 71 69 68 66 64 61 61 60 60 60 60 62 61 63 66 63 63

GFSFLT2_sfc_temp_108.txt.gz
Temp
76 75 74 72 72 72 71 72 73 75 75 73 73 72 73 73 73 74 74 74 73 72 71 70 69 69 68 67 68 67 68 69
77 76 75 74 73 70 70 71 71 72 72 71 70 71 71 72 72 72 73 73 73 71 69 68 68 67 67 66 65 66 69 69
79 78 77 76 75 74 70 71 70 70 72 70 68 73 72 72 72 71 72 72 71 70 68 67 66 66 66 66 66 68 68 72
81 80 79 78 80 75 74 74 74 73 74 73 73 73 73 76 73 70 70 70 70 68 67 66 67 66 65 66 66 69 67 70
82 80 79 79 78 77 77 76 75 74 74 73 72 73 72 71 70 70 70 69 69 68 66 67 65 65 65 65 66 68 66 70
83 82 79 78 79 78 78 77 76 75 74 73 71 71 70 70 69 70 70 70 68 68 67 65 64 64 65 66 67 68 65 71
83 82 80 79 78 78 76 75 75 75 74 74 72 70 69 70 69 70 70 69 67 66 66 64 64 64 64 66 67 67 68 68
82 82 80 80 78 77 76 76 74 73 73 73 73 71 69 69 68 68 69 68 68 66 65 64 63 64 63 65 66 68 69 70
81 80 80 78 78 77 76 75 74 72 72 73 72 72 70 69 68 68 68 67 67 66 65 64 63 63 63 64 65 66 70 71
82 82 79 78 77 78 78 77 75 73 71 71 72 72 71 69 68 67 67 66 65 65 64 63 63 62 61 62 64 66 70 70
81 78 78 76 77 77 77 76 75 73 71 71 71 72 71 69 68 68 67 66 65 64 64 64 62 62 63 63 63 67 68 71
81 78 77 76 77 77 77 75 74 74 73 72 72 72 70 70 68 67 67 65 63 63 63 63 62 62 63 63 61 67 70 69
81 78 76 76 75 75 75 73 71 70 72 73 71 72 71 69 67 67 66 64 64 62 62 61 61 63 60 59 59 62 66 68
81 80 77 77 76 76 76 74 70 70 68 69 71 71 70 69 66 64 62 61 61 61 60 59 59 61 59 57 53 57 61 65
81 81 78 77 75 75 75 71 68 67 68 68 70 70 70 68 66 63 61 61 59 59 60 59 57 60 60 57 53 52 56 61
80 81 80 78 74 73 72 69 65 67 68 69 69 69 69 68 66 63 61 60 59 59 61 59 59 57 58 60 60 61 54 52
77 79 82 79 75 74 73 71 70 68 70 68 67 68 68 69 66 64 61 60 60 60 60 59 59 59 57 57 57 57 58 56
75 78 80 80 75 73 73 72 71 69 69 66 66 67 67 67 66 64 62 61 59 60 61 60 59 59 58 58 57 55 55 57
76 78 80 79 76 73 74 73 72 70 69 68 65 66 66 66 66 64 63 62 60 61 61 61 60 59 58 59 59 59 61 61
61 79 80 79 77 74 74 75 73 73 72 69 67 66 65 66 66 64 63 63 61 61 60 60 60 60 59 59 60 62 62 61

GFSFLT2_sfc_temp_111.txt.gz
Temp
70 70 72 71 71 71 71 71 72 74 74 73 72 72 72 73 73 73 73 73 73 72 71 70 70 70 69 67 66 66 66 66
69 69 69 68 69 70 70 70 71 72 73 72 70 70 71 71 72 72 73 73 72 71 70 69 69 68 68 66 66 66 65 66
70 69 69 68 68 70 70 70 70 70 71 70 67 69 70 71 70 70 71 71 71 69 68 68 67 67 67 67 66 66 65 66
71 70 69 69 73 68 68 69 68 68 69 68 68 68 68 71 70 70 70 70 69 68 68 67 66 64 65 66 67 67 66 66
72 72 71 71 71 68 68 68 67 68 68 68 68 69 68 68 66 67 66 68 66 66 66 64 63 63 64 65 66 67 65 65
74 73 73 72 72 69 69 69 68 68 68 68 68 66 66 66 65 64 65 66 64 64 63 62 62 63 64 65 66 65 64 65
75 75 74 73 72 71 70 70 70 69 69 68 67 66 65 66 65 65 65 65 65 63 63 62 61 62 63 64 65 66 65 64
77 77 75 75 73 72 71 69 70 68 68 69 68 66 65 65 64 65 64 65 64 64 63 62 61 61 62 64 65 66 65 65
77 76 75 75 74 72 71 70 69 66 66 67 68 67 66 65 64 64 64 64 63 63 62 61 61 62 62 63 64 65 65 66
78 79 76 75 76 72 72 70 67 66 66 66 70 70 67 65 64 64 64 64 64 63 62 62 61 62 62 62 63 64 64 66
77 76 75 74 74 72 71 68 67 66 66 65 68 70 67 66 65 64 66 64 62 62 62 63 62 61 61 61 62 62 63 67
78 75 75 74 73 72 71 67 67 67 66 66 66 70 67 65 64 64 64 63 63 62 62 62 62 62 62 61 61 62 62 66
75 74 73 73 72 71 70 67 66 66 66 67 67 67 66 64 64 64 64 63 64 63 62 61 61 61 60 60 60 60 60 64
73 73 72 74 74 74 70 65 63 64 64 66 67 66 66 65 64 62 64 62 62 62 61 60 61 62 59 59 54 55 59 63
74 74 72 73 73 69 66 64 64 62 61 62 64 66 66 66 63 62 62 61 61 61 61 60 58 60 61 57 52 51 56 59
70 74 73 73 71 71 69 66 63 63 62 62 63 64 65 64 62 61 59 59 60 60 61 61 60 58 58 59 59 62 56 52
66 68 73 73 72 71 69 64 64 61 61 62 62 63 63 64 62 60 59 59 59 59 59 60 60 58 58 57 56 57 56 55
63 64 67 71 70 69 69 66 63 63 62 63 62 63 63 63 62 61 61 59 59 59 60 59 59 59 58 58 57 57 54 54
59 60 61 64 69 69 69 69 66 63 63 62 62 61 63 62 62 60 60 60 60 59 59 59 59 59 58 58 57 57 57 56
54 53 55 58 69 69 70 70 68 66 66 64 63 63 61 62 62 61 61 61 60 59 59 59 59 59 58 58 58 58 59 59

GFSFLT2_sfc_temp_114.txt.gz
Temp
69 70 71 71 70 70 70 71 71 71 72 72 72 72 72 73 73 73 73 73 72 72 71 70 71 70 68 67 67 68 67 65
68 68 69 69 70 69 69 70 70 71 71 71 70 71 71 71 71 72 73 73 72 71 70 70 70 68 66 66 67 67 66 66
68 68 67 67 68 70 69 70 70 70 71 71 68 69 69 70 70 70 71 71 71 70 69 68 67 67 66 66 66 65 66 65
68 67 67 66 70 68 68 70 69 69 69 68 68 67 68 70 69 69 70 70 69 69 68 67 66 64 64 66 65 66 66 65
68 67 67 67 68 67 67 67 67 67 67 67 67 67 67 66 65 67 66 68 66 66 66 64 63 62 63 63 64 66 65 66
69 69 68 68 68 67 67 67 66 67 67 67 67 66 65 65 65 65 64 64 65 66 65 62 62 63 63 63 64 64 64 65
70 71 69 69 68 67 67 67 67 67 66 67 67 66 66 65 64 64 64 64 64 63 62 62 61 62 62 63 63 64 65 64
72 71 71 71 69 68 68 68 67 67 67 67 67 66 65 65 64 64 64 64 64 63 62 61 60 60 61 62 63 64 64 64
73 72 72 71 71 70 69 69 69 67 67 67 67 67 65 65 64 64 64 64 63 62 61 60 59 60 60 61 62 63 63 64
74 76 72 72 72 71 71 69 69 68 67 67 67 67 66 64 64 64 63 64 63 62 62 61 60 61 59 59 61 63 64 64
74 74 72 72 73 71 71 69 69 68 66 67 67 67 66 65 64 63 63 63 63 63 62 63 61 60 61 60 61 62 63 65
75 74 73 73 73 69 68 67 66 67 67 66 66 67 66 65 64 63 64 64 62 62 62 63 62 61 62 61 61 62 62 62
73 73 73 73 71 67 66 66 65 65 66 66 65 65 66 65 64 63 63 64 64 63 62 61 60 62 60 60 59 61 61 62
71 73 72 73 72 72 69 68 64 65 64 65 66 65 65 64 64 63 63 62 62 63 62 60 61 61 58 58 54 56 60 60
65 71 72 73 74 68 63 62 62 60 62 64 64 65 65 65 64 63 62 62 63 62 62 61 59 60 61 58 53 52 56 59
63 65 69 73 73 69 66 66 64 65 65 64 64 65 64 64 63 62 62 62 62 61 62 61 60 58 60 60 58 57 55 52
58 60 62 67 68 70 68 68 69 62 63 62 64 64 64 64 62 61 60 59 58 59 60 60 60 59 59 56 57 56 56 56
53 54 56 59 62 66 66 66 64 62 62 62 62 63 61 62 62 61 60 58 57 58 60 60 60 60 60 58 57 56 55 56
51 51 51 55 56 62 66 67 64 63 63 64 62 61 61 62 62 60 58 58 58 59 59 59 59 59 58 58 58 57 57 56
48 50 51 54 53 56 66 68 64 65 63 64 63 63 63 62 62 61 59 58 59 58 58 59 59 59 58 58 58 58 58 58

GFSFLT2_sfc_temp_117.txt.gz
Temp
69 70 71 70 70 70 70 71 71 71 72 72 72 72 72 73 73 73 73 73 72 72 71 70 70 70 68 68 67 69 66 66
68 68 70 70 70 69 69 70 70 70 71 71 70 70 71 71 71 72 72 72 72 71 70 70 70 68 67 67 66 68 66 66
67 68 68 69 71 70 69 70 70 69 70 70 68 69 69 70 70 70 71 71 70 70 70 69 67 66 66 66 66 65 65 65
66 67 67 67 70 71 71 71 69 68 69 69 69 68 68 69 69 69 70 70 69 69 68 68 66 64 63 66 63 64 64 65
66 66 66 66 68 69 69 70 69 66 66 67 67 67 66 66 66 67 67 68 66 66 66 64 63 62 62 62 63 63 63 65
68 68 67 67 66 68 68 69 69 68 67 66 67 66 65 64 65 64 64 64 64 64 65 62 62 62 62 62 62 62 62 65
68 68 67 67 66 66 66 67 68 68 68 67 68 68 66 64 64 64 63 63 66 65 64 61 61 61 62 62 62 62 62 63
69 67 67 68 67 66 66 66 66 65 66 67 66 67 66 65 64 63 63 63 62 64 62 61 60 60 61 62 62 62 62 62
68 68 68 68 68 67 66 66 66 66 65 65 66 66 65 65 64 63 63 63 62 61 60 59 59 59 60 61 61 61 61 62
71 72 69 68 68 68 68 67 67 67 66 66 66 66 65 64 64 64 63 62 62 61 62 61 58 58 57 58 60 61 61 61
71 71 69 68 69 68 68 67 67 67 67 66 66 66 65 64 64 63 63 63 62 62 62 62 61 60 60 57 59 60 61 63
73 71 71 70 70 67 66 64 66 66 66 67 66 67 66 64 63 62 63 63 63 62 62 62 62 61 61 61 61 62 62 62
70 69 70 69 68 65 65 65 65 65 66 66 66 67 66 64 63 62 63 64 63 63 62 61 61 61 59 59 59 61 61 62
63 69 71 70 71 70 69 68 65 65 63 64 66 65 65 64 64 62 63 64 63 62 62 61 61 61 59 57 54 57 60 61
58 64 69 70 72 70 63 62 62 61 62 64 65 65 64 65 64 63 63 63 63 63 63 61 60 60 61 58 53 52 56 59
54 57 61 67 68 67 64 65 63 65 66 67 65 65 64 64 64 62 62 63 62 63 63 62 61 59 60 59 58 57 54 52
51 53 55 59 63 67 65 63 64 61 62 64 63 63 64 64 63 62 62 62 64 62 62 61 61 60 59 57 58 57 56 54
50 51 52 55 56 58 65 65 63 60 60 61 62 62 62 63 63 62 62 62 60 60 60 61 60 59 59 57 57 55 56 55
48 50 50 52 54 55 58 65 64 64 62 62 62 62 62 62 62 62 61 60 59 58 60 59 59 59 59 58 58 59 59 59
45 47 49 51 52 54 56 59 65 65 67 65 63 62 63 63 63 62 61 59 59 60 59 58 58 58 58 58 58 59 58 59

GFSFLT2_sfc_temp_120.txt.gz
Temp
68 70 71 71 70 70 70 71 71 72 72 72 72 72 72 72 73 73 73 72 72 72 71 70 70 70 69 68 67 68 67 67
68 68 69 69 70 69 69 70 70 70 71 71 70 70 71 72 72 72 72 72 72 71 70 70 69 68 68 67 66 68 67 67
68 69 70 71 71 70 69 70 69 69 70 70 68 70 70 71 70 70 71 71 71 70 70 69 67 67 67 66 66 65 66 66
68 69 70 70 72 71 70 71 70 70 70 69 68 67 68 69 69 69 70 70 69 69 69 67 66 65 64 66 63 65 65 65
67 68 69 69 71 71 71 72 69 67 67 67 67 66 66 66 66 68 67 69 66 67 66 66 63 63 63 63 63 64 64 65
66 67 66 68 70 71 70 70 70 68 66 66 68 67 66 64 65 65 65 65 65 64 66 63 62 62 62 62 63 63 63 64
65 66 66 66 66 69 70 70 69 70 67 66 69 68 67 64 63 64 64 64 64 64 65 61 61 61 62 62 62 63 63 63
66 66 66 66 65 66 68 69 69 69 70 69 69 68 67 66 63 63 63 64 66 66 65 61 61 61 61 61 62 62 63 63
66 66 66 65 66 65 65 66 67 67 67 69 68 69 67 66 65 63 63 63 64 64 62 60 59 60 60 61 62 63 62 62
68 69 66 65 66 65 65 65 65 65 65 66 68 67 66 64 65 63 62 62 62 61 61 61 59 58 58 59 60 61 61 62
68 68 66 66 66 66 65 64 64 64 64 65 66 66 65 65 65 64 62 63 62 62 62 62 60 59 58 58 59 59 60 62
71 70 69 67 67 66 65 65 65 65 65 65 65 66 65 64 64 63 63 63 63 62 62 62 62 61 61 61 59 59 61 60
66 68 68 68 68 65 66 65 66 66 65 66 65 66 65 64 64 62 63 64 63 63 62 61 60 61 59 59 59 61 61 62
55 63 67 67 69 68 68 67 67 67 66 66 66 66 65 65 64 63 63 63 63 63 62 60 61 61 59 58 55 57 60 61
51 53 63 67 69 68 63 63 62 63 63 64 65 66 65 65 64 64 63 64 63 63 63 62 60 60 61 58 53 53 56 59
49 52 55 62 67 67 66 65 65 66 66 66 66 66 66 65 64 63 64 65 64 63 64 63 61 59 60 60 59 58 54 53
48 54 55 56 58 65 64 64 64 62 63 64 65 63 64 65 64 63 63 64 64 62 63 63 62 61 60 58 58 57 57 54
48 51 53 54 56 56 60 63 61 61 61 62 63 63 63 63 63 63 63 63 63 63 63 62 61 61 61 59 58 57 56 55
47 48 49 52 53 53 55 57 60 62 62 63 62 62 62 62 63 63 63 63 63 63 62 61 61 61 60 59 59 59 58 58
45 46 47 48 50 51 54 55 57 61 65 62 63 62 63 64 64 64 64 63 62 61 61 61 61 60 59 59 59 59 58 58